GFSFLT1_925_temp_003.txt.gz
Temp
18 20 21 20 20 21 21 21 21 20 19 19 19 20 19 18 18 17 17 16 16 16 16 16 16 15 15 14 14 13 13 13
17 19 19 20 20 21 21 21 20 18 18 17 18 18 18 18 17 17 16 16 16 16 15 15 15 14 15 14 14 12 12 12
16 17 19 20 21 21 20 18 17 17 17 16 16 16 16 16 16 16 16 16 16 15 14 14 13 12 11 12 12 12 11 11
18 17 17 18 17 17 17 16 16 16 16 16 15 15 15 14 14 14 14 14 14 14 14 13 13 12 11 11 11 11 13 12
18 17 17 16 16 16 16 15 15 15 15 14 14 12 12 12 11 11 12 14 13 13 13 13 12 11 10 10 11 11 11 12
16 15 14 13 14 15 15 15 14 14 14 14 13 12 11 10 10 10 11 11 12 12 12 12 12 12 10 9 9 9 9 10
15 13 13 13 14 14 15 15 14 14 14 13 12 11 10 10 10 10 10 10 10 11 11 11 10 9 8 6 6 6 6 6
14 14 13 13 14 14 14 14 12 12 12 11 11 11 10 10 10 9 8 8 7 8 8 8 6 6 6 5 5 4 4 4
14 13 13 13 12 12 12 11 11 11 12 12 12 11 10 9 8 8 7 6 6 7 6 6 6 7 7 6 6 5 4 2
15 14 13 12 11 11 12 12 13 12 11 11 11 10 9 9 8 8 7 6 5 5 5 5 5 5 5 5 5 5 4 3
16 15 13 12 12 12 12 11 11 10 10 9 9 8 8 7 7 6 5 4 4 4 5 4 4 3 3 3 3 3 2 2
15 14 13 11 11 10 10 10 10 9 8 8 8 7 7 6 5 4 4 4 4 3 3 3 2 1 0 2 3 3 3 3
14 13 12 11 11 10 9 9 7 8 8 7 6 6 6 4 3 3 3 3 3 3 2 2 1 1 2 2 2 3 3 2
14 12 11 10 10 9 8 7 8 7 6 5 5 5 5 3 2 2 2 2 2 2 1 1 2 2 2 2 2 2 2 1
13 11 10 10 9 8 7 7 6 6 5 4 3 3 3 2 1 2 1 2 2 1 1 1 1 1 2 2 2 1 -0 -1
11 10 10 9 8 7 7 6 5 5 4 3 2 2 2 1 1 2 2 2 2 1 0 0 1 1 0 0 -1 -1 -2 -2
9 8 8 8 7 6 5 5 4 4 2 2 2 2 2 2 2 1 1 1 0 1 1 0 -0 -1 -1 -2 -2 -2 -2 -3
8 8 8 8 7 5 5 4 4 3 2 3 2 2 2 1 1 1 0 -0 -1 -1 -1 -2 -2 -2 -3 -3 -4 -3 -3 -4
8 9 8 7 6 5 5 4 4 3 3 2 2 1 1 0 0 -0 -1 -1 -2 -2 -2 -3 -3 -3 -4 -5 -5 -5 -5 -5

GFSFLT1_925_temp_006.txt.gz
Temp
24 23 23 23 22 22 22 22 21 19 19 18 19 18 18 18 18 17 16 16 15 15 16 16 15 15 16 16 16 16 16 15
23 22 21 21 21 21 21 20 17 18 19 19 19 19 18 18 17 15 15 15 15 14 15 15 15 15 15 15 15 15 15 15
23 22 21 21 20 20 19 18 17 17 18 17 16 16 17 16 16 15 15 14 14 14 14 14 14 14 14 14 14 14 15 15
23 22 20 19 18 18 18 17 16 16 16 17 17 17 17 17 16 15 14 13 13 13 13 13 12 13 13 14 14 14 14 15
22 21 20 18 17 17 16 16 16 15 14 15 15 15 15 14 14 14 13 13 13 12 12 12 12 12 12 12 13 13 13 14
21 19 18 17 16 16 15 16 15 15 14 14 14 14 14 14 13 13 13 13 12 12 11 10 10 11 11 10 10 10 11 12
19 18 18 17 16 15 15 16 15 14 14 13 12 12 12 13 13 12 12 12 12 11 10 9 9 9 9 9 8 8 8 8
20 19 19 17 16 15 15 15 15 14 13 13 12 12 12 12 12 11 10 11 10 10 8 8 9 8 8 8 7 7 5 4
19 19 18 17 16 15 15 15 15 14 13 13 13 12 11 11 10 9 9 9 8 7 7 7 7 7 7 7 6 5 5 5
19 19 18 16 15 15 14 14 15 14 13 12 11 10 10 9 8 8 8 7 7 7 6 7 6 6 5 5 4 3 3 3
20 19 18 16 15 14 14 13 13 12 12 11 10 9 9 7 7 7 6 6 6 6 6 6 5 4 3 3 2 2 2 2
19 18 17 16 15 14 13 13 12 11 11 10 9 8 7 7 6 6 5 5 5 6 5 5 4 2 1 1 1 2 4 4
18 17 16 15 14 13 13 12 11 9 9 8 8 7 7 6 6 5 5 4 4 4 3 2 2 2 2 2 3 3 4 4
18 17 15 14 13 12 9 9 9 9 8 8 8 7 6 5 5 4 3 3 3 2 2 3 2 2 2 3 3 3 3 3
16 15 14 12 10 10 9 9 8 8 8 7 7 6 4 3 2 3 3 3 3 3 3 3 3 2 2 3 3 2 2 2
14 13 11 11 11 10 10 9 8 7 7 6 5 4 4 4 4 4 3 3 3 3 2 2 2 2 2 -0 1 1 1 1
11 9 10 11 11 10 9 9 8 6 6 5 5 4 4 4 3 3 3 3 2 2 2 1 1 1 -1 -2 -3 -1 -0 -0
9 9 11 11 10 9 9 8 7 6 6 5 5 4 4 3 3 3 2 2 1 1 1 0 -0 -0 -2 -3 -5 -3 -2 -2
10 11 11 10 10 9 8 8 7 6 5 5 4 4 3 3 3 2 2 1 1 1 0 -1 -1 -1 -3 -5 -6 -4 -3 -3

GFSFLT1_925_temp_009.txt.gz
Temp
28 27 26 26 26 25 25 23 23 22 22 21 21 21 20 20 20 19 17 17 16 16 16 16 16 16 17 17 17 17 16 17
26 25 25 24 24 24 24 23 20 21 21 21 21 21 20 20 19 17 17 16 16 16 16 16 16 16 16 15 16 16 16 16
25 24 24 24 23 22 21 21 20 20 20 19 18 18 19 18 18 17 17 15 15 15 15 15 15 15 14 14 14 15 15 15
25 23 22 21 21 21 20 19 18 18 18 19 18 19 19 18 17 17 16 15 15 15 14 14 13 13 14 14 14 14 14 14
25 23 22 20 19 19 19 18 18 17 16 17 16 17 17 16 16 16 15 14 14 14 14 13 12 12 12 12 13 12 12 13
23 22 21 19 18 18 18 18 17 17 16 15 15 15 15 15 15 14 14 14 13 13 13 12 11 11 11 11 11 10 10 11
22 21 20 19 18 18 18 18 18 16 15 15 15 14 13 14 14 13 13 12 12 12 11 11 10 10 10 10 10 9 8 7
22 22 21 20 19 18 18 18 18 17 16 15 15 14 14 13 13 12 11 11 11 10 10 9 9 10 9 9 7 6 5 4
22 21 20 20 19 18 17 17 17 17 16 15 14 13 13 12 11 10 9 9 9 9 9 9 8 8 7 7 6 5 5 4
22 21 21 19 18 18 17 16 16 16 15 14 13 12 11 10 9 9 9 8 8 9 8 8 7 7 5 4 4 4 4 3
22 21 20 19 18 17 17 16 16 15 14 13 12 11 10 9 8 8 8 8 7 7 7 6 5 3 3 3 3 3 3 3
21 20 19 18 18 17 16 15 14 13 12 11 10 10 9 9 8 8 7 5 6 5 5 4 4 3 3 2 3 3 3 3
20 19 18 17 16 16 15 13 12 12 11 11 10 10 9 9 8 6 5 5 5 4 4 3 3 3 2 2 2 3 4 4
18 18 17 16 15 14 13 12 11 11 10 10 10 9 8 7 6 5 5 5 5 5 5 4 4 4 4 4 4 4 4 3
17 16 15 14 13 12 12 12 11 10 10 10 9 8 7 6 6 5 5 5 5 4 4 4 4 4 3 3 3 2 2 3
15 14 13 12 12 13 12 12 11 10 9 9 8 7 7 6 5 5 5 4 4 4 4 3 3 3 2 1 0 0 0 1
13 13 12 13 13 12 12 11 11 10 9 9 8 7 5 5 5 5 4 4 4 3 3 3 2 2 0 -1 -2 -2 -2 -1
12 13 12 13 12 12 12 12 11 10 9 8 8 6 5 5 5 5 4 4 3 3 3 2 2 1 -1 -2 -3 -3 -3 -2
12 12 12 12 12 12 12 11 11 10 9 8 7 6 5 5 5 4 4 3 3 3 2 1 1 0 -1 -4 -5 -4 -3 -3

GFSFLT1_925_temp_012.txt.gz
Temp
29 28 28 27 26 26 25 23 22 22 21 21 21 21 21 20 20 19 17 17 16 16 16 16 16 16 16 16 16 15 15 15
25 25 25 25 24 22 21 21 21 22 22 21 20 19 19 19 19 18 17 17 15 15 15 15 15 14 14 14 14 14 14 14
24 23 22 22 22 21 21 20 20 20 20 19 19 18 19 19 18 17 17 16 15 15 15 14 14 13 13 13 13 13 13 13
23 22 21 21 21 20 20 19 18 18 18 18 18 18 18 17 17 16 16 15 14 14 14 13 13 12 12 12 12 12 11 11
24 22 20 19 19 19 19 18 18 17 17 17 16 16 16 16 15 14 14 14 13 13 13 12 12 11 11 11 11 11 10 10
22 22 20 19 18 18 18 18 18 17 16 16 15 15 14 14 14 14 13 12 12 12 11 11 10 10 10 10 10 9 9 8
22 21 20 19 18 18 18 18 18 18 17 16 15 15 14 14 13 12 11 10 10 10 10 9 9 9 9 8 8 7 7 6
22 22 21 20 19 19 19 18 18 18 17 16 15 14 13 12 11 10 9 9 9 9 9 9 8 8 7 7 6 6 5 5
22 22 21 20 20 19 18 17 17 17 16 15 14 12 11 11 9 9 9 8 8 8 8 8 7 6 6 5 5 5 4 4
22 22 21 20 20 19 18 17 16 15 13 13 12 11 11 10 9 9 8 8 7 6 6 6 5 5 5 4 4 4 4 3
22 21 20 19 18 18 17 15 14 14 13 12 11 11 10 9 9 9 7 6 6 6 6 5 4 4 3 3 3 2 3 3
20 20 19 17 17 16 15 14 13 12 12 12 11 11 10 10 9 7 6 5 5 5 5 5 4 4 3 3 3 3 3 3
19 18 16 16 15 15 14 13 13 12 11 11 11 11 10 9 8 7 6 5 5 5 5 5 5 4 4 4 4 4 4 3
18 16 16 15 15 14 12 13 13 12 11 11 10 10 8 7 7 6 6 5 5 5 5 4 4 4 4 3 3 3 1 1
17 16 15 14 13 12 12 13 12 12 11 11 10 9 8 7 7 6 6 5 5 4 4 4 3 3 3 2 1 1 0 -0
15 14 14 13 13 13 13 13 12 11 10 10 10 9 8 7 6 5 5 5 4 4 4 3 3 3 2 1 -0 -1 -1 -1
13 13 13 13 13 13 13 13 12 10 9 8 9 7 7 6 5 5 5 5 4 4 3 3 2 2 0 -1 -2 -3 -3 -3
12 13 13 13 13 12 12 12 12 10 9 10 8 5 4 5 5 5 4 4 4 3 3 2 1 1 -1 -2 -3 -4 -4 -4
12 13 13 13 12 12 12 11 11 11 11 9 6 5 5 6 5 5 4 4 3 3 3 2 0 -1 -1 -2 -3 -4 -4 -5

GFSFLT1_925_temp_015.txt.gz
Temp
21 23 23 23 21 20 20 19 19 20 21 21 20 19 19 19 18 17 17 16 16 16 16 15 15 14 14 14 14 13 13 13
19 20 20 20 20 19 19 19 20 20 20 20 19 19 19 17 17 16 16 16 16 16 14 14 14 13 13 13 12 12 12 12
19 19 20 19 19 19 19 19 19 19 18 18 18 18 18 18 17 16 14 14 14 13 13 13 12 12 12 11 11 11 11 11
18 17 18 19 19 18 18 18 18 18 18 18 18 17 17 16 15 15 14 13 13 12 12 11 11 11 10 10 10 10 10 10
18 17 18 18 18 18 18 18 18 18 17 17 16 15 15 14 14 13 13 12 11 11 10 10 10 10 10 9 9 9 9 8
16 17 18 18 18 18 18 18 18 18 17 16 15 15 14 13 12 12 11 11 10 10 9 9 9 9 8 8 8 7 7 7
18 19 19 18 18 18 18 18 17 17 16 16 15 14 12 12 11 10 10 9 9 8 8 8 8 8 7 7 6 6 5 5
17 17 18 18 18 18 18 17 17 17 15 14 13 12 11 10 9 9 9 9 8 7 7 6 6 6 6 5 5 5 4 4
17 19 20 19 18 18 17 17 16 14 14 13 12 11 11 10 9 9 8 7 7 6 6 5 5 4 4 4 4 3 3 3
18 18 18 17 16 16 16 15 14 13 13 12 11 11 10 10 9 8 7 6 6 6 5 5 5 5 4 4 4 3 3 3
15 15 16 16 15 15 14 14 13 13 12 11 11 11 10 10 8 7 7 6 6 5 5 5 5 4 4 4 3 3 3 3
14 15 15 15 15 14 13 12 12 12 12 11 11 11 10 9 8 7 7 6 6 5 5 5 4 4 4 4 3 3 2 2
14 15 14 14 13 13 13 12 12 12 12 11 11 10 9 9 8 7 7 6 5 5 5 4 4 4 3 3 3 2 1 1
12 12 13 13 13 13 13 13 12 12 12 11 10 9 8 7 7 7 6 5 5 5 4 4 3 3 3 2 2 1 0 -0
11 11 12 12 13 13 13 13 12 12 11 10 10 8 7 6 6 6 5 5 5 4 4 3 3 3 2 2 1 -0 -1 -2
11 10 11 12 12 12 12 12 12 11 11 10 10 8 7 6 5 4 2 5 5 4 4 3 3 2 1 0 -1 -2 -2 -3
10 11 12 12 12 12 12 11 10 9 9 9 8 7 6 4 4 2 4 4 4 4 3 3 2 1 -0 -1 -2 -2 -3 -4
10 10 11 12 12 10 10 9 9 9 8 7 5 5 4 4 3 3 4 4 4 3 3 2 1 0 -1 -2 -2 -3 -4 -4
10 11 11 12 10 9 9 9 9 8 7 6 5 4 4 3 2 2 3 3 3 2 1 1 -0 -1 -2 -3 -3 -4 -5 -5

GFSFLT1_925_temp_018.txt.gz
Temp
17 17 19 18 17 18 18 18 18 19 19 19 18 18 17 17 17 16 16 15 15 14 14 14 13 13 13 12 12 12 12 12
16 16 16 16 17 16 16 17 17 18 18 18 18 17 16 15 15 14 14 14 14 14 13 13 12 12 11 11 11 10 11 11
15 16 18 17 17 17 17 18 18 17 17 17 17 16 15 15 14 14 13 13 13 12 12 11 10 10 10 10 10 9 9 9
15 15 16 17 17 18 18 18 18 18 17 17 17 17 16 15 12 12 12 12 12 11 10 10 9 9 9 9 9 9 8 8
16 16 17 17 17 17 17 18 18 18 18 17 17 16 15 13 13 12 12 11 11 10 9 9 8 8 8 7 7 7 7 6
14 16 18 18 18 18 18 17 17 17 17 16 15 15 14 12 12 12 11 10 9 9 8 8 8 7 6 6 5 5 5 5
15 17 17 18 18 18 18 17 17 16 15 15 14 14 12 11 10 10 9 9 8 8 7 7 6 5 5 5 4 4 4 3
14 16 16 17 17 16 16 15 14 15 14 13 12 12 11 10 10 9 8 8 7 7 6 6 5 5 5 4 4 4 4 3
14 14 15 15 15 15 15 14 13 13 13 12 11 11 11 10 10 9 8 7 7 6 6 5 5 5 4 4 4 3 3 3
13 14 14 15 15 14 14 13 12 12 12 11 11 11 10 10 9 9 8 7 7 6 5 5 5 4 4 4 3 3 3 3
12 13 13 13 12 12 13 12 12 12 12 11 11 11 10 10 9 8 7 7 6 5 5 5 4 4 4 3 3 3 3 2
11 12 13 13 13 13 12 12 12 12 12 12 11 11 10 9 8 7 7 6 5 5 5 4 4 4 3 3 3 2 1 1
11 11 12 12 12 13 12 12 12 12 12 11 10 10 9 8 7 7 6 5 5 5 4 4 4 3 3 3 2 2 1 -0
10 11 11 12 12 12 12 12 11 11 11 10 9 9 9 8 7 6 5 4 4 3 4 4 4 3 3 2 1 0 -1 -1
10 9 11 12 12 12 12 10 10 9 9 9 8 8 7 7 6 5 4 3 3 3 3 3 3 3 2 1 0 -0 -1 -2
10 9 10 11 12 11 10 9 9 9 8 8 7 6 6 6 5 4 3 3 3 2 3 3 3 2 1 0 -1 -2 -2 -3
10 10 10 10 9 9 9 9 9 8 8 7 6 5 5 5 4 3 3 2 3 3 3 3 1 1 -0 -1 -2 -3 -3 -4
9 9 10 9 9 9 9 9 8 7 6 5 5 4 4 3 3 2 1 1 2 2 2 1 0 -1 -2 -3 -3 -4 -5 -5
9 9 9 9 9 9 9 8 8 6 5 5 4 4 3 3 2 1 1 1 1 1 1 -1 -1 -2 -3 -4 -5 -5 -6 -6

GFSFLT1_925_temp_021.txt.gz
Temp
14 16 16 16 16 17 16 17 17 16 17 17 17 16 16 15 15 15 15 15 14 14 14 13 12 12 12 12 11 11 10 9
13 13 15 16 16 16 17 17 15 17 16 16 15 15 15 15 15 15 14 14 14 14 13 12 12 11 10 10 9 9 9 8
14 14 16 16 17 17 17 17 17 17 17 17 16 15 15 15 14 14 14 13 13 12 12 11 11 11 10 9 8 8 7 7
13 13 15 16 17 17 17 18 18 18 17 17 16 15 14 14 13 12 11 10 10 10 9 9 9 8 8 7 7 7 6 7
14 14 15 17 17 18 18 18 18 17 17 17 17 17 16 12 11 10 10 10 9 9 9 8 8 7 7 6 6 5 5 5
13 14 16 17 17 17 17 16 17 16 16 16 16 14 12 11 10 10 9 10 10 9 8 8 7 7 6 5 5 4 4 3
14 15 15 15 15 15 15 15 15 15 15 14 14 13 11 11 11 11 11 10 9 8 8 7 6 5 5 4 4 4 3 3
12 13 14 15 15 15 15 15 14 14 13 13 12 12 12 12 11 11 10 10 9 8 7 6 6 5 4 4 4 3 3 3
12 12 13 13 13 14 13 13 13 13 12 12 12 12 11 11 11 10 10 9 8 6 6 6 5 4 4 4 3 3 3 3
11 11 12 13 13 13 13 12 12 12 12 11 11 11 11 10 10 9 9 7 6 6 6 5 4 4 4 4 3 3 3 2
10 11 12 12 13 13 12 12 12 12 12 12 11 10 9 9 9 9 8 7 6 5 4 3 4 4 4 3 3 3 2 2
10 11 11 12 12 12 12 12 12 12 11 10 10 10 9 9 9 8 6 6 6 5 4 4 4 4 3 3 3 2 2 1
10 11 12 11 11 11 11 11 11 11 10 9 9 9 8 7 7 6 6 6 5 4 3 3 3 3 3 3 2 1 1 -0
9 10 10 10 11 11 11 10 10 9 9 9 9 8 8 7 7 7 6 6 5 4 3 2 3 3 3 2 1 1 -0 -1
8 8 9 10 10 10 10 9 9 9 9 8 8 7 6 6 5 5 5 4 3 3 3 3 2 2 2 1 0 -1 -2 -2
10 9 9 9 9 9 9 9 9 8 8 8 7 6 5 4 4 4 3 2 2 2 2 2 2 2 1 0 -1 -2 -3 -3
10 10 9 9 9 9 9 9 8 8 7 7 6 5 4 4 4 3 2 2 1 2 1 2 1 -0 -1 -2 -3 -3 -4 -5
10 8 9 8 9 8 8 8 8 7 6 5 5 4 3 3 3 2 1 0 0 1 1 0 -1 -1 -2 -3 -4 -5 -5 -6
8 8 8 8 8 8 8 8 7 6 5 4 3 3 3 2 2 1 1 1 0 0 -0 -1 -2 -3 -4 -5 -5 -6 -7 -7

GFSFLT1_925_temp_024.txt.gz
Temp
12 13 15 15 16 16 16 15 15 14 14 15 15 15 15 15 16 15 15 15 14 14 13 12 11 11 10 10 9 9 8 7
12 12 14 14 15 15 16 16 14 14 14 15 16 16 16 15 15 14 14 14 13 13 12 11 10 11 10 9 8 8 8 7
13 14 15 15 15 16 16 15 15 15 16 16 16 15 15 14 14 13 13 12 12 11 11 11 10 10 9 8 7 6 6 6
12 13 14 15 16 16 16 16 16 16 17 16 16 15 14 13 12 12 11 11 11 11 10 9 9 8 8 7 6 5 5 5
13 13 14 15 15 16 16 16 16 16 16 16 15 15 13 11 11 10 10 10 10 10 9 9 9 8 7 5 5 5 4 4
12 13 14 15 15 15 16 16 16 16 16 15 14 14 12 11 11 11 11 11 10 10 8 8 7 6 5 4 4 4 3 3
13 13 14 14 14 16 16 16 15 15 14 14 14 13 12 12 11 11 11 10 9 8 8 7 6 5 5 4 4 4 3 3
11 13 13 13 14 13 14 14 14 13 13 13 12 12 12 11 11 11 11 10 10 9 7 6 5 5 4 4 4 3 3 3
11 12 12 12 12 13 13 13 13 12 12 12 12 12 11 11 11 10 10 9 8 7 6 6 5 5 4 4 4 3 3 3
10 11 11 12 12 12 12 12 12 12 12 12 11 10 10 9 9 9 8 8 7 6 6 5 5 4 4 4 3 3 3 3
9 10 10 11 12 12 12 12 11 11 11 10 9 9 9 9 9 8 8 7 6 6 6 5 4 4 3 3 3 3 2 2
8 10 11 11 12 11 11 12 12 11 11 10 9 9 9 8 8 7 7 7 6 6 5 3 3 2 1 3 3 2 2 1
9 10 11 11 10 11 11 11 10 10 9 9 9 8 8 7 6 6 6 6 6 4 3 3 3 2 2 2 2 1 1 -0
8 9 10 10 10 10 10 10 9 9 9 9 8 7 7 6 6 5 5 5 4 3 2 2 2 2 2 2 1 0 -1 -1
7 8 9 9 9 9 9 9 9 9 8 8 7 7 6 5 5 4 4 3 3 2 2 2 1 1 1 1 -0 -1 -2 -2
8 8 8 9 9 9 8 9 9 8 8 7 6 5 5 4 4 3 3 2 2 1 1 1 1 1 1 -0 -1 -2 -3 -4
8 9 9 9 8 8 8 9 8 8 7 6 5 5 5 4 3 2 2 1 0 0 -1 1 1 -0 -1 -2 -3 -4 -4 -5
8 9 9 8 8 8 8 8 8 7 6 5 5 4 3 3 2 1 1 1 -0 0 0 -1 -1 -2 -2 -3 -5 -5 -6 -7
8 8 8 8 8 8 8 7 7 6 5 5 4 3 2 2 1 1 1 0 0 -0 -1 -2 -2 -3 -4 -5 -6 -6 -7 -8

GFSFLT1_925_temp_027.txt.gz
Temp
12 13 14 14 14 14 15 15 16 14 15 15 14 15 14 15 15 15 14 13 13 13 12 11 11 11 10 8 8 8 8 7
13 13 13 13 13 14 16 15 16 15 14 14 14 14 14 14 13 13 13 13 12 12 11 10 10 9 8 7 7 7 8 6
13 13 14 14 14 14 15 15 16 15 15 15 15 15 13 13 13 12 12 11 11 11 10 10 9 8 8 8 6 6 6 5
14 14 14 14 14 14 14 15 16 15 15 15 14 14 12 11 11 11 11 11 11 10 10 9 9 8 7 6 5 5 6 5
15 14 13 13 14 15 15 15 15 14 14 14 14 13 13 11 11 11 11 11 10 10 10 9 8 7 6 5 5 4 4 5
15 15 14 13 14 14 14 14 14 14 14 14 14 13 12 11 11 11 11 11 10 10 9 8 7 7 6 5 4 4 4 4
14 13 13 14 15 15 15 14 14 14 14 13 13 12 12 11 11 11 11 10 10 10 9 7 6 6 5 4 4 3 3 3
15 14 14 13 13 14 14 14 13 13 13 12 12 12 11 11 10 9 9 9 8 8 7 6 6 5 5 4 3 3 3 3
15 14 13 13 12 12 13 13 12 12 12 12 11 11 11 10 9 9 9 8 8 7 7 6 6 6 4 3 3 3 2 2
15 13 12 11 11 11 12 12 12 12 12 11 11 10 9 9 9 9 8 7 7 6 6 6 5 4 3 4 3 2 2 2
13 12 11 10 10 11 12 12 12 12 11 10 9 9 9 8 8 8 7 7 7 6 6 4 3 3 3 3 2 2 2 2
12 11 11 10 10 11 11 11 11 10 10 9 9 9 8 8 7 7 6 6 5 5 4 3 3 3 3 2 1 2 2 1
12 11 11 10 10 10 10 10 10 10 9 9 9 8 8 7 6 6 5 4 4 3 3 3 2 2 2 1 1 1 1 -0
11 11 11 10 10 9 9 10 10 9 9 9 8 8 7 6 5 5 3 3 2 2 1 2 1 1 1 1 1 1 -1 -1
12 11 10 9 9 10 10 9 9 9 9 8 7 6 5 5 4 3 2 2 1 1 1 1 1 0 1 1 -0 -2 -2 -2
11 11 10 9 9 9 9 9 9 8 8 7 6 5 5 4 4 3 2 1 1 1 0 0 0 -0 -1 -1 -2 -2 -3 -3
11 10 9 9 9 8 8 8 8 8 7 6 5 5 4 4 3 2 1 1 1 0 -0 -0 -1 -2 -2 -2 -2 -3 -4 -4
11 10 10 9 8 9 8 8 8 7 6 6 5 4 4 3 2 1 1 0 0 0 -0 -1 -2 -3 -2 -3 -4 -4 -5 -5
10 10 9 8 8 8 8 8 7 6 6 5 4 4 3 2 1 1 1 0 -0 -0 -1 -2 -3 -3 -3 -4 -5 -5 -6 -6

GFSFLT1_925_temp_030.txt.gz
Temp
18 20 21 20 19 17 16 16 16 16 16 14 14 14 13 13 12 12 13 12 12 12 12 11 12 12 11 10 10 11 11 11
17 17 18 18 17 17 16 15 15 16 16 12 13 13 12 12 13 12 12 11 12 12 12 11 11 11 10 10 10 10 10 10
17 17 18 17 17 17 16 15 15 16 16 16 16 15 14 14 12 11 11 11 11 11 11 11 10 11 10 9 9 9 10 9
19 18 18 17 17 17 17 17 17 16 16 15 15 14 13 14 13 13 12 11 11 10 10 10 10 10 10 9 8 8 8 8
20 19 18 18 18 18 18 17 17 16 15 16 16 17 17 15 13 12 12 10 10 10 10 10 9 9 9 9 8 7 7 8
21 20 19 18 16 17 17 17 16 15 15 15 15 15 14 13 13 12 12 11 10 10 10 9 9 9 8 7 7 7 7 7
20 19 18 18 17 16 16 16 15 15 14 14 14 13 14 14 13 13 13 12 11 11 9 9 8 8 7 7 7 6 6 6
20 19 19 17 16 15 15 16 15 14 14 14 13 13 13 13 12 12 11 11 11 10 9 8 8 8 7 6 6 6 6 5
20 19 19 17 16 16 16 15 15 14 14 13 12 12 12 12 11 10 10 10 9 8 8 7 7 7 7 6 6 5 5 5
20 19 18 17 16 15 15 15 14 13 12 12 12 11 11 10 10 9 9 8 8 8 7 7 7 7 6 6 5 5 4 4
20 18 17 16 15 14 14 14 13 12 12 11 11 10 10 9 9 8 8 8 7 7 7 7 6 6 6 5 5 5 4 4
19 18 16 15 14 14 13 13 12 12 12 10 10 10 9 9 8 8 7 7 6 6 5 5 5 5 5 5 4 4 4 3
19 16 15 14 14 14 13 12 12 11 11 10 10 9 9 8 8 7 6 6 5 5 4 4 5 4 4 3 3 3 3 3
18 16 15 15 14 13 12 12 11 11 10 10 10 10 9 8 7 6 6 5 4 4 4 4 3 3 3 3 2 2 2 2
17 16 16 14 14 13 12 11 11 10 10 10 10 9 8 7 6 6 5 4 4 4 4 2 2 2 2 2 2 1 1 1
17 16 15 14 13 13 12 10 10 10 10 10 9 8 7 6 5 5 4 3 3 3 3 2 1 1 1 1 1 1 1 0
17 16 15 14 13 13 10 11 10 9 9 9 8 7 6 6 5 4 4 3 3 3 2 2 1 1 -1 -1 -1 -0 -0 -1
16 16 14 14 13 10 11 10 9 8 8 8 7 6 5 5 4 4 4 3 3 3 2 2 1 1 -2 -2 -2 -2 -2 -2
16 15 14 13 11 10 10 9 9 8 8 7 6 5 5 5 4 4 3 3 3 3 2 1 1 -0 -2 -3 -3 -2 -2 -3

GFSFLT1_925_temp_033.txt.gz
Temp
24 24 25 24 23 20 19 18 15 16 17 17 15 15 13 13 13 13 13 13 13 14 14 13 13 14 13 12 11 12 12 12
22 23 24 23 22 20 19 17 16 15 16 16 16 15 15 14 14 13 14 14 13 14 14 13 13 13 12 11 11 11 11 11
22 22 22 22 21 19 18 17 16 17 18 17 17 17 16 16 15 14 14 13 13 13 12 13 12 12 12 12 10 10 10 10
23 22 22 21 20 19 18 17 17 19 19 18 18 17 16 16 15 14 14 13 13 12 12 12 12 12 12 11 10 10 9 9
24 23 21 19 18 18 18 19 20 19 18 18 18 19 18 18 17 16 14 13 12 12 12 11 11 11 10 10 10 9 9 9
24 22 21 21 20 20 21 20 19 18 18 18 18 18 17 16 15 14 14 13 13 12 12 11 11 10 10 10 9 9 9 8
24 23 22 21 20 20 20 19 19 18 17 17 17 16 16 16 15 14 15 14 13 13 12 11 11 10 10 10 9 8 8 7
24 23 22 21 19 19 19 19 18 17 16 16 15 15 15 14 14 14 13 13 12 12 11 10 10 9 9 9 8 7 7 7
23 23 22 20 19 18 18 18 17 16 16 15 15 14 14 14 13 12 12 11 11 10 9 9 9 8 8 8 8 7 7 6
23 22 22 20 19 18 18 18 17 16 15 14 14 13 12 12 12 11 11 10 10 9 9 8 8 8 8 8 8 7 6 5
23 22 21 20 19 18 17 17 17 15 14 13 13 12 12 12 11 10 10 9 9 8 8 7 7 7 7 7 7 6 5 4
23 22 21 19 18 17 16 16 16 15 14 13 12 11 11 11 10 10 9 8 8 7 7 7 7 7 7 6 5 5 5 4
24 22 20 19 18 17 16 16 15 14 13 12 11 11 11 11 10 9 9 8 7 7 6 6 6 6 5 4 4 4 4 3
24 22 20 19 17 17 16 15 15 13 12 12 12 12 11 11 10 9 8 7 7 6 6 6 5 5 4 4 3 3 3 2
23 22 20 18 17 17 16 15 14 12 12 12 12 12 11 10 9 8 7 7 6 6 6 6 5 4 4 3 3 3 2 2
22 21 20 19 17 16 15 14 13 12 11 12 12 11 10 9 8 7 7 6 6 5 5 5 4 3 3 2 2 2 2 2
21 21 20 19 17 16 15 13 11 11 11 11 11 10 9 8 8 7 6 6 6 5 5 4 4 3 1 1 -0 0 1 1
21 20 19 18 17 15 14 11 11 11 11 11 10 9 8 8 7 7 6 6 5 5 5 4 3 2 0 -0 -1 -2 -0 0
21 20 18 17 16 14 12 12 11 10 10 10 9 8 7 7 7 6 6 5 5 5 4 3 2 2 -0 -1 -2 -2 -0 -0

GFSFLT1_925_temp_036.txt.gz
Temp
26 25 25 24 22 20 20 17 16 17 16 15 15 16 17 16 14 14 14 14 14 14 14 13 13 13 13 12 11 11 11 11
25 25 25 24 21 20 19 17 15 16 15 16 16 15 15 14 14 14 14 14 14 14 14 13 13 13 12 12 11 11 10 10
24 24 24 24 21 20 18 17 16 16 17 17 17 16 15 15 15 14 14 14 14 13 13 13 12 12 12 12 11 10 10 10
23 23 23 23 21 19 18 17 16 17 18 18 17 17 16 16 15 14 14 14 13 13 12 12 12 11 11 11 10 10 9 9
24 23 22 22 19 19 18 17 17 18 19 18 18 17 17 16 16 15 14 13 13 13 13 12 11 11 11 10 10 10 9 9
25 23 23 20 19 18 18 18 18 19 19 18 18 18 17 16 16 14 14 13 13 13 13 12 11 11 10 10 10 10 9 8
25 24 21 20 19 18 19 19 19 19 18 18 18 18 17 16 15 15 15 14 14 13 12 11 10 10 10 9 9 9 8 8
24 23 22 21 21 21 20 20 19 18 18 17 16 16 16 15 15 14 14 13 13 11 10 10 9 9 9 9 8 8 8 7
24 23 22 21 20 20 20 20 19 18 17 16 15 15 14 14 14 13 12 12 11 10 10 9 9 8 8 8 8 8 8 7
23 23 22 20 20 19 19 19 18 17 16 15 15 14 13 13 12 12 11 11 10 10 9 8 8 7 7 7 7 7 7 6
23 23 22 21 20 19 19 19 18 17 16 15 13 13 12 12 11 11 10 10 9 8 8 8 7 7 7 7 6 6 5 5
23 23 22 21 20 19 18 18 18 16 15 14 13 12 11 11 11 11 10 9 8 8 7 7 7 7 6 5 5 5 4 4
23 23 22 21 20 19 18 17 17 15 15 13 12 11 11 11 11 10 10 9 8 7 7 7 6 6 5 5 4 4 4 3
24 23 22 21 20 18 17 17 16 16 14 12 11 11 11 11 11 10 9 8 8 7 6 6 6 5 5 4 4 3 3 3
24 24 22 20 19 18 17 16 16 15 13 12 12 11 11 11 10 10 9 8 7 6 6 6 6 4 4 3 3 3 2 2
24 24 20 20 19 18 17 16 15 14 13 11 11 11 11 10 9 9 8 7 6 6 6 6 5 4 3 3 2 2 1 1
24 23 22 21 19 18 17 16 14 12 11 11 9 11 10 9 9 8 7 7 6 6 6 5 5 4 3 2 2 1 0 0
23 22 21 21 20 18 17 15 12 11 11 11 11 10 9 9 8 7 7 7 6 5 5 5 4 3 2 1 1 0 -0 -0
22 22 21 20 19 17 16 13 12 11 10 10 10 9 9 8 7 6 7 6 6 5 5 4 4 3 2 1 0 -0 -1 -1

GFSFLT1_925_temp_039.txt.gz
Temp
23 22 21 20 20 19 19 18 18 18 18 17 16 15 14 14 14 14 14 14 14 14 14 14 13 13 13 12 11 11 10 10
23 24 21 20 20 19 19 18 16 17 16 15 14 14 14 13 14 14 14 14 14 14 13 13 13 12 12 11 11 10 10 9
22 23 20 19 19 18 18 17 16 16 16 16 16 15 14 14 15 14 14 14 14 14 13 13 12 12 11 11 10 10 10 9
20 22 19 18 18 17 16 17 17 17 17 17 16 16 15 14 14 14 14 14 13 13 13 12 12 11 11 11 10 10 9 9
21 21 19 19 18 18 17 17 17 17 17 17 16 16 15 15 15 14 14 13 13 13 12 12 12 11 11 10 10 10 10 9
20 20 21 19 18 17 17 17 18 18 17 17 17 16 16 16 15 14 13 13 13 13 12 12 11 10 10 9 9 9 9 8
21 21 18 18 18 18 17 18 18 17 17 18 18 17 15 15 14 14 14 13 12 12 11 11 10 10 9 9 8 8 8 8
19 18 18 17 18 19 19 18 17 18 18 17 17 16 16 15 14 14 13 12 11 11 11 10 9 9 8 8 8 7 7 7
19 19 18 18 19 18 18 17 18 18 18 17 16 15 15 14 14 13 13 12 11 11 10 9 9 8 8 7 7 7 7 6
18 18 19 19 19 19 19 18 18 17 17 16 15 15 14 14 13 12 12 11 10 10 9 8 8 7 7 7 6 6 5 5
18 17 19 19 19 19 19 18 18 17 16 15 14 14 13 13 12 11 11 10 10 9 8 8 7 7 7 6 6 5 4 4
17 17 19 19 19 19 19 18 17 16 16 14 13 13 12 12 11 11 10 9 9 8 7 7 7 6 6 5 5 4 4 3
18 18 18 18 19 19 18 18 17 16 14 14 13 12 11 11 11 10 9 9 9 8 7 7 6 6 6 5 4 4 3 3
18 18 18 17 17 18 18 17 16 15 14 13 12 12 11 10 10 9 9 9 8 7 7 6 6 6 5 4 4 3 3 2
19 19 18 19 18 16 17 17 16 15 13 12 12 11 11 10 9 8 9 8 7 7 6 6 6 5 5 4 3 3 2 2
19 18 16 18 17 16 16 16 15 14 13 12 11 10 9 9 9 8 8 8 7 7 6 6 6 5 4 4 3 3 2 2
19 16 16 16 16 16 16 15 14 13 12 11 10 10 8 8 8 8 8 7 7 6 6 6 5 4 4 4 3 2 1 1
19 19 17 18 17 17 15 14 13 12 11 11 10 9 8 7 7 7 7 6 6 6 6 5 5 4 4 3 2 1 1 0
17 17 19 17 16 15 12 12 11 10 9 9 8 6 7 6 6 6 6 6 6 6 5 5 4 4 3 3 1 1 0 -0

GFSFLT1_925_temp_042.txt.gz
Temp
20 19 18 18 19 19 18 18 18 17 17 17 16 16 16 16 16 15 15 14 14 15 14 14 13 13 12 12 11 10 10 10
20 19 18 18 18 18 18 17 17 17 16 16 15 16 16 15 15 14 14 14 14 14 13 13 13 12 12 11 11 10 10 9
20 19 18 17 17 17 18 18 17 17 17 17 16 16 15 15 14 14 14 14 14 13 13 13 12 12 11 11 11 10 10 9
18 18 17 17 16 17 18 18 17 17 17 16 16 15 14 14 13 13 13 13 13 13 13 13 12 12 11 11 10 10 9 9
19 18 17 17 16 16 17 18 17 16 16 17 16 15 13 13 14 14 13 13 13 13 13 12 12 11 10 10 9 9 8 8
19 18 18 17 17 16 17 17 17 17 17 16 15 15 15 15 14 13 13 13 13 13 12 11 11 10 10 9 9 8 8 8
20 17 17 16 16 16 17 17 17 16 16 16 16 16 15 14 14 13 13 13 12 12 11 11 10 10 9 8 8 8 7 7
16 15 16 15 15 15 15 16 16 16 16 16 16 17 16 15 14 13 13 12 11 10 10 10 9 9 8 8 7 7 6 6
17 16 16 16 15 15 15 16 17 17 17 17 16 16 15 15 14 13 12 11 10 10 9 9 8 8 7 7 7 6 6 5
17 17 16 16 15 16 16 17 17 17 16 16 16 14 14 14 13 12 11 10 9 8 8 8 8 7 7 7 6 5 5 5
15 15 16 16 18 17 17 18 17 16 15 15 15 14 13 12 11 11 10 9 9 8 7 7 7 7 7 6 6 5 5 4
16 16 17 18 18 18 17 17 16 16 16 15 14 13 12 12 11 10 10 9 8 7 6 7 7 7 6 6 5 5 4 3
16 16 16 17 18 18 18 18 17 16 16 14 13 12 12 11 11 10 9 8 8 8 7 7 7 6 6 5 5 4 4 3
16 16 16 16 16 17 17 17 16 15 14 13 12 12 11 11 10 9 9 9 8 7 7 7 6 6 6 5 5 4 3 3
17 16 16 17 16 16 15 15 15 14 13 13 12 11 11 10 10 9 8 8 8 7 7 6 6 6 5 5 4 4 3 2
17 15 14 15 16 15 15 15 14 13 12 12 11 10 9 9 8 8 8 7 7 7 6 6 6 6 5 5 4 4 3 2
17 16 14 14 15 14 13 13 12 11 10 9 9 9 9 9 8 7 7 7 6 6 6 6 6 5 5 5 4 3 2 2
16 15 14 14 14 14 12 11 10 10 10 9 9 8 7 7 6 5 4 5 6 5 6 5 5 5 5 4 3 3 2 1
11 11 11 12 12 11 10 9 9 8 7 7 7 6 5 4 3 4 4 4 5 5 5 5 5 5 4 4 3 2 1 0

GFSFLT1_925_temp_045.txt.gz
Temp
17 16 16 16 17 16 17 17 17 17 17 16 15 15 16 16 17 16 15 15 14 14 14 14 13 13 13 12 12 11 10 9
18 17 17 17 16 16 17 17 17 17 16 15 15 15 16 16 15 15 14 14 14 14 14 13 13 13 12 12 11 10 9 9
18 18 17 17 17 17 17 17 17 17 17 16 15 16 15 15 14 14 14 14 14 13 14 13 13 12 12 11 10 10 9 9
18 17 17 17 16 17 17 17 17 17 16 16 15 14 15 13 14 13 13 13 13 13 13 13 12 12 11 10 10 9 9 9
19 18 17 16 16 17 17 17 17 17 16 15 15 15 13 14 14 14 13 13 13 13 13 12 12 11 10 9 9 9 8 8
18 18 17 16 16 16 15 15 15 16 16 15 15 15 15 16 14 13 13 13 13 12 12 12 11 10 9 9 9 8 7 7
18 18 18 17 16 15 15 15 15 16 16 16 16 15 15 14 14 13 13 12 12 12 11 10 9 9 9 9 8 7 7 6
15 15 16 16 15 14 15 15 14 16 16 16 15 15 15 15 15 13 12 11 11 10 10 9 9 8 7 7 7 6 6 6
15 16 16 15 14 14 14 14 14 15 15 16 15 15 15 15 14 13 12 11 10 9 9 8 7 7 7 6 6 6 6 5
16 15 15 15 15 14 14 14 15 15 15 16 15 14 14 14 13 12 10 10 8 7 7 6 6 7 7 6 6 5 5 5
15 15 15 15 15 15 14 15 15 15 16 15 15 14 13 13 12 11 10 9 8 8 7 7 7 7 6 6 6 5 5 4
15 15 15 15 15 15 15 15 15 15 15 15 14 13 13 13 12 12 11 10 8 8 8 7 7 6 6 6 5 5 4 4
15 15 15 15 16 16 16 16 16 15 14 14 13 13 13 12 11 11 10 8 9 8 8 7 6 6 6 6 5 5 4 4
15 14 14 15 15 15 15 15 14 13 12 12 12 12 11 10 10 9 8 8 8 7 7 7 6 6 6 5 5 5 4 4
14 14 14 15 15 14 14 12 12 12 11 11 10 9 10 10 9 8 8 8 8 7 7 6 6 6 6 5 5 5 4 3
15 14 13 14 14 14 13 13 12 11 10 9 9 10 9 9 8 8 8 7 6 6 5 5 5 6 6 5 5 4 4 3
16 15 14 13 14 13 12 11 11 10 9 9 9 9 8 8 7 6 5 5 5 5 4 4 5 5 5 5 5 4 4 3
11 11 12 12 12 11 10 10 9 9 8 8 8 7 6 5 5 5 5 5 4 4 3 4 5 5 5 5 4 4 3 2
8 7 7 8 9 9 8 8 8 7 6 5 5 4 4 5 5 5 4 3 3 4 4 5 4 5 4 4 4 3 3 2

GFSFLT1_925_temp_048.txt.gz
Temp
16 16 16 15 15 15 15 15 16 16 16 15 15 15 15 15 15 16 16 15 15 15 14 14 14 13 12 12 12 11 10 10
17 17 16 16 16 16 16 16 16 16 16 15 15 14 14 14 14 16 15 15 14 14 14 14 13 13 12 12 11 10 9 9
16 16 16 16 16 16 16 16 16 16 16 16 15 14 14 14 15 15 14 14 14 14 14 13 12 12 12 11 10 10 9 8
16 16 15 16 16 17 17 17 17 17 16 15 14 14 13 13 13 14 14 13 13 13 13 13 12 12 11 10 10 9 9 8
17 16 16 16 16 16 16 16 16 16 16 15 14 15 13 13 15 15 13 13 13 12 13 12 11 11 10 9 9 9 8 8
17 17 17 16 16 16 16 16 16 15 15 15 15 14 14 14 14 13 13 12 12 12 11 11 10 10 9 9 8 7 6 7
18 18 17 17 16 16 16 15 15 15 14 14 15 15 14 14 13 13 12 12 11 11 11 11 10 9 9 8 7 6 7 6
16 15 16 16 16 15 15 15 14 15 14 14 15 15 14 14 13 13 12 11 11 10 10 9 9 8 8 7 7 7 7 6
16 16 16 15 14 14 15 15 14 14 15 15 14 14 13 13 13 13 13 12 10 9 9 8 8 8 7 6 7 7 6 6
16 14 16 15 14 14 15 15 14 14 15 15 14 13 13 13 12 13 12 11 10 9 8 9 8 7 7 7 7 6 6 5
14 13 14 14 14 14 16 15 15 15 14 14 14 14 13 13 12 12 11 11 11 9 8 7 7 7 7 7 7 6 5 5
13 13 14 15 15 15 16 14 14 14 14 14 14 14 13 12 11 12 11 9 8 7 7 7 7 6 7 7 6 5 5 5
13 13 14 14 15 15 14 13 14 14 15 14 13 12 11 10 10 9 8 8 8 7 6 6 6 7 6 6 5 5 5 4
14 13 13 13 13 13 13 14 14 14 13 13 11 10 10 9 8 8 8 8 7 6 7 7 6 6 5 4 5 5 4 4
14 13 12 14 14 14 13 13 13 12 11 10 9 8 8 9 9 9 8 8 7 7 6 6 5 4 4 5 5 5 5 4
14 14 12 12 13 13 12 12 11 10 9 8 8 8 8 8 8 7 7 7 6 5 5 4 3 3 4 5 5 5 5 4
10 11 13 12 12 11 11 11 10 9 8 8 8 8 8 7 6 5 5 5 5 5 4 3 3 3 4 5 4 4 4 4
8 7 7 8 9 9 8 8 8 8 7 6 6 6 5 5 5 5 5 5 5 4 3 3 3 4 4 5 5 4 4 4
5 5 5 6 6 6 6 7 6 5 4 4 5 5 5 5 5 5 4 3 3 3 3 3 4 4 4 4 4 4 3 3

GFSFLT1_925_temp_051.txt.gz
Temp
16 15 15 15 14 14 14 14 14 15 15 15 15 15 16 16 15 15 15 15 15 14 14 14 14 13 13 12 12 11 10 10
17 16 15 15 15 14 14 14 15 15 14 14 14 15 15 15 15 14 14 15 15 15 14 14 13 13 13 12 11 11 10 10
17 16 16 15 15 15 15 15 15 15 14 15 14 14 15 14 13 14 13 14 15 14 14 14 13 12 12 11 11 10 9 9
18 17 16 16 16 15 15 15 15 15 14 14 15 14 14 13 13 13 13 13 14 14 13 13 12 12 12 11 11 10 9 8
19 18 17 16 16 15 16 15 15 15 15 14 14 14 14 12 12 13 14 13 13 13 13 12 12 12 11 11 10 9 9 9
19 19 18 17 16 15 16 15 15 15 15 14 14 13 13 13 13 13 13 12 12 12 12 12 11 11 11 10 9 8 8 7
20 20 18 18 16 15 16 15 15 14 14 14 14 13 13 13 13 12 11 12 12 12 11 11 11 11 10 8 7 7 7 7
20 20 19 18 16 15 15 15 15 15 14 14 14 15 13 14 13 13 12 11 10 11 11 11 11 10 8 8 7 7 7 6
20 20 19 18 16 15 15 15 15 14 14 14 15 15 12 13 13 13 13 11 11 11 11 11 10 9 7 8 7 6 6 6
20 19 18 18 16 15 15 15 15 14 14 13 14 13 12 12 12 13 12 11 10 11 10 9 8 7 7 7 6 6 6 6
18 18 17 16 16 15 14 15 15 14 13 13 13 12 12 12 12 12 11 10 10 9 7 6 6 7 6 6 6 6 6 6
17 17 16 16 15 15 15 15 15 15 14 13 13 13 12 12 12 10 10 9 8 6 6 7 7 6 5 6 6 5 5 5
17 17 16 15 15 15 15 15 14 14 14 15 14 13 12 11 10 9 8 8 7 7 7 6 6 6 6 5 5 5 4 4
17 16 16 15 15 14 14 13 14 13 13 12 12 10 9 8 8 8 8 7 7 7 6 6 5 5 5 4 4 4 4 4
17 17 16 15 15 14 14 12 12 12 11 10 8 7 7 8 7 7 6 6 6 6 5 5 5 5 4 4 4 4 4 4
15 16 15 14 14 12 11 11 11 10 10 8 7 7 7 7 7 7 6 6 6 5 5 5 5 4 4 3 3 3 3 4
12 12 13 13 11 10 9 8 8 8 7 6 6 7 7 6 6 5 5 4 3 4 4 4 4 4 3 3 3 3 3 3
10 9 9 8 8 8 7 7 6 6 6 5 5 6 5 5 5 4 4 4 4 4 3 3 2 3 3 4 4 3 2 3
7 7 7 6 6 6 6 6 5 5 5 4 4 5 5 5 5 4 4 4 3 3 2 2 2 3 3 3 3 3 2 2

GFSFLT1_925_temp_057.txt.gz
Temp
20 21 20 20 17 16 16 15 15 15 15 16 17 17 17 18 18 17 16 16 16 15 16 16 15 15 14 14 15 14 16 16
20 20 20 20 19 18 17 16 17 17 18 18 18 18 18 18 18 17 15 15 16 15 16 16 14 15 15 13 13 14 14 15
22 21 20 20 20 19 18 18 18 18 19 19 19 19 18 18 17 17 15 15 16 15 15 16 14 15 14 13 13 13 14 14
23 22 21 20 20 19 19 19 19 19 20 20 20 19 19 19 19 18 14 13 15 15 15 15 15 15 14 12 13 14 15 14
24 23 22 21 20 20 20 20 20 20 20 21 20 20 20 19 19 18 14 14 15 15 14 13 15 15 14 12 12 13 14 15
25 24 23 22 21 20 20 20 20 21 21 20 20 20 20 20 19 18 14 13 12 14 13 13 14 13 12 12 13 13 14 14
27 26 24 23 22 21 20 20 21 21 21 20 20 20 19 20 20 16 14 13 13 13 13 13 12 11 12 12 13 13 11 11
28 27 26 24 23 22 21 21 21 21 21 20 20 19 19 19 19 17 16 15 14 13 12 11 11 10 11 13 12 11 10 8
29 28 27 26 25 23 22 22 22 22 21 20 19 19 18 18 18 18 17 16 15 13 11 11 10 9 11 11 10 9 7 8
29 29 28 27 25 24 23 22 22 22 21 19 18 17 18 17 17 17 16 15 13 12 10 10 9 10 9 9 7 7 7 6
29 29 28 27 26 25 23 22 22 21 20 19 18 18 16 16 15 15 14 13 11 10 10 9 10 9 7 6 6 5 5 5
28 28 28 28 27 26 23 22 22 21 21 20 18 16 15 15 14 14 13 11 10 9 9 9 8 6 5 5 6 5 5 4
27 27 26 26 25 25 24 22 22 22 22 20 17 16 15 14 13 13 12 11 10 9 8 7 6 6 6 5 5 5 4 4
27 26 25 25 24 24 23 22 22 22 21 16 14 13 13 12 12 11 10 9 8 6 6 6 5 5 4 4 5 5 4 4
27 26 25 24 23 22 21 19 19 19 15 12 11 10 10 9 9 8 7 6 6 6 5 5 5 4 5 5 4 4 4 5
27 27 25 23 22 21 16 14 13 12 10 9 8 8 8 7 7 6 6 5 5 5 4 4 5 5 5 4 4 3 4 4
26 26 25 22 20 19 16 13 11 10 9 9 9 9 9 9 8 8 7 6 5 5 5 5 5 4 4 3 3 3 4 5
23 23 22 19 17 16 15 13 11 11 10 10 10 10 9 8 8 8 7 6 6 5 5 4 4 3 4 4 3 3 4 5
20 20 18 17 16 15 14 13 12 11 11 10 9 9 9 8 7 7 6 6 6 5 5 5 4 6 5 4 3 3 4 4

GFSFLT1_925_temp_060.txt.gz
Temp
19 16 15 14 13 12 12 12 12 12 12 13 13 15 16 17 17 18 17 16 16 16 16 16 16 15 15 15 15 15 16 16
22 19 18 17 14 13 13 13 13 13 13 13 14 16 16 17 17 18 17 16 16 15 16 16 16 15 15 14 14 15 15 15
21 21 20 18 15 15 15 15 15 15 15 15 16 17 17 17 18 18 17 16 16 16 16 16 15 14 14 14 14 14 14 15
21 21 20 18 17 17 17 16 15 15 17 18 18 18 18 18 18 18 17 16 16 16 16 16 15 14 15 14 13 13 13 14
22 21 20 20 19 18 17 17 17 17 18 19 19 19 19 18 18 18 17 16 16 16 15 16 15 14 14 13 13 13 13 14
23 22 21 20 20 19 18 18 18 19 19 19 20 20 20 20 19 19 18 16 15 15 14 14 14 14 13 13 12 12 12 13
24 23 22 21 21 20 19 20 20 20 20 20 20 20 20 20 19 19 18 16 15 14 13 12 13 13 13 13 11 11 10 10
25 24 23 23 21 20 20 20 20 20 21 21 20 20 20 20 20 19 17 15 14 14 14 13 12 13 13 12 10 9 9 9
26 26 25 24 23 21 21 20 20 20 21 21 21 20 20 19 18 18 18 15 14 14 14 13 13 13 12 11 10 9 9 8
28 26 26 25 24 23 21 21 21 21 21 21 21 20 18 19 18 18 18 17 15 14 13 13 12 11 10 9 9 10 8 7
29 28 27 26 25 24 22 21 22 22 22 21 21 18 18 19 18 17 16 16 14 13 13 12 11 10 9 9 8 7 6 6
28 28 28 27 26 25 23 22 22 23 22 20 19 18 18 17 15 16 15 14 13 13 12 10 9 8 8 8 6 6 6 6
27 27 28 28 27 26 24 23 23 23 22 21 19 18 17 15 15 14 13 13 12 11 10 9 8 7 7 6 6 6 5 6
27 26 26 26 26 26 24 23 23 22 21 19 16 14 15 14 13 13 12 11 10 9 8 7 7 6 6 5 5 5 5 5
26 26 25 25 25 24 23 21 17 16 14 13 11 12 12 11 10 10 9 9 8 7 6 6 6 5 5 5 5 5 4 4
26 25 24 24 23 18 16 14 13 12 11 10 10 10 9 9 8 7 7 6 6 6 5 5 5 5 5 5 4 4 3 4
27 26 24 23 19 16 14 12 11 10 9 9 9 9 8 7 7 6 6 5 5 5 5 5 5 5 4 4 3 3 4 4
26 26 23 22 18 15 13 11 10 10 10 9 10 10 9 8 8 7 6 6 5 5 5 5 5 4 4 4 3 3 3 4
23 22 20 18 17 14 12 12 11 11 11 11 10 9 9 9 8 7 6 6 5 5 5 5 5 5 4 3 3 3 3 3

GFSFLT1_925_temp_063.txt.gz
Temp
13 12 11 11 11 11 11 12 12 11 11 11 12 14 15 15 15 16 17 17 16 16 16 16 16 16 16 16 15 15 15 16
15 13 12 11 11 11 11 11 11 11 12 12 12 13 15 16 16 17 17 16 16 16 16 16 16 16 16 15 15 15 15 15
15 14 13 12 11 11 11 11 11 12 12 12 13 14 15 16 17 17 17 17 16 16 16 16 16 16 15 15 15 15 15 15
16 15 14 13 12 12 12 12 11 12 13 13 13 14 15 16 16 17 17 17 17 16 16 16 16 15 15 15 15 14 14 14
17 17 15 13 13 13 13 13 13 13 13 13 14 15 15 16 17 17 17 17 17 16 16 16 16 16 15 14 14 14 13 13
19 18 16 15 15 14 14 14 14 14 14 15 15 16 17 17 17 17 17 17 17 17 16 16 16 15 14 14 14 13 12 11
19 19 18 16 16 16 16 15 15 15 15 16 16 17 17 17 17 17 17 17 17 16 16 16 15 14 13 13 13 12 12 10
19 19 19 19 17 16 16 16 16 16 16 16 17 18 18 19 19 18 17 16 16 16 15 14 14 14 13 12 12 11 10 9
21 20 19 19 19 17 17 17 17 17 17 17 18 19 19 19 19 19 19 18 18 17 15 14 13 12 12 12 11 10 9 9
22 21 20 20 20 19 18 18 18 18 18 18 18 19 19 20 19 18 19 17 17 16 14 13 13 13 12 11 10 9 9 9
23 22 21 21 20 20 19 19 18 18 19 19 19 19 20 19 19 17 16 15 15 15 13 13 12 11 11 10 9 9 8 7
22 23 22 22 22 20 19 19 19 19 19 19 19 20 20 17 18 17 16 15 13 14 14 13 11 11 10 9 9 8 7 7
24 20 23 23 22 22 20 19 19 19 19 19 19 17 18 17 16 14 13 13 12 13 12 11 10 9 9 8 7 6 6 6
22 23 21 22 23 23 22 19 19 18 17 17 17 17 14 14 14 13 12 12 12 11 10 10 9 8 7 7 6 6 6 6
21 21 21 21 17 17 19 19 16 16 14 14 13 13 13 13 12 11 11 11 10 10 9 8 7 7 6 6 5 5 5 5
21 20 19 15 14 13 12 12 12 12 11 11 11 11 11 10 10 10 10 9 8 8 7 6 6 6 5 5 5 5 5 4
21 21 19 16 14 12 10 10 11 11 11 10 10 10 9 9 9 8 8 7 7 6 6 5 5 5 5 5 5 4 4 4
21 20 18 16 13 12 10 10 10 10 10 9 8 8 8 8 7 7 6 6 5 5 5 5 5 5 5 4 4 3 3 3
18 18 16 14 13 12 11 10 10 10 9 9 8 8 7 7 6 6 5 5 5 5 5 5 4 4 4 3 3 2 2 2

GFSFLT1_925_temp_066.txt.gz
Temp
12 12 11 11 11 11 11 10 12 13 14 14 14 15 15 16 17 18 17 16 16 16 16 16 16 16 16 16 16 15 15 15
12 11 11 11 11 11 11 12 12 13 13 13 13 15 16 17 16 16 16 16 16 16 16 17 16 16 16 16 16 15 15 15
13 11 11 10 11 11 10 11 12 12 13 13 13 14 15 16 17 16 16 16 16 16 16 16 16 16 16 16 15 15 15 15
13 12 11 10 10 10 11 11 12 13 13 14 13 14 15 15 15 16 16 16 16 16 16 16 16 16 16 16 15 15 15 14
14 13 11 10 10 11 11 11 11 12 12 12 12 12 13 14 15 15 16 16 16 17 17 16 16 16 15 15 15 15 14 13
15 14 13 12 11 11 11 11 11 11 12 12 12 13 13 14 15 15 17 17 16 16 16 17 16 16 15 15 15 14 14 14
16 15 14 13 12 12 12 12 11 11 12 12 13 13 13 14 15 15 16 16 17 17 17 16 16 16 16 16 14 14 14 13
16 16 15 13 13 13 13 13 13 13 12 13 13 13 14 14 15 15 15 16 16 16 16 16 15 15 14 13 13 13 13 12
18 17 16 15 14 14 14 14 14 14 13 13 13 14 14 15 15 15 15 16 16 17 17 16 16 15 13 12 12 12 12 11
18 18 17 16 15 15 14 15 15 15 14 14 14 14 14 15 15 16 16 16 16 16 16 15 14 13 13 12 12 12 11 10
19 19 18 18 16 16 15 15 15 15 15 15 15 15 15 16 16 16 15 15 15 15 14 14 13 13 13 12 11 11 10 9
20 20 19 19 18 17 16 15 16 16 16 16 16 16 16 16 16 14 14 14 16 14 13 13 13 12 12 11 10 10 9 8
21 21 20 19 19 19 18 16 16 16 16 17 17 17 16 16 14 14 14 14 13 13 13 13 12 11 11 10 9 8 8 6
18 19 21 20 20 20 19 18 17 17 16 16 17 16 16 14 14 15 15 14 12 12 12 11 11 11 10 9 9 8 7 6
19 18 17 17 20 20 19 17 17 17 17 17 16 15 15 14 13 14 13 12 12 11 11 11 10 9 8 8 7 6 6 5
19 17 14 13 14 17 18 17 17 17 15 14 14 14 13 11 12 12 12 12 12 11 10 9 8 8 7 6 6 5 5 4
19 17 14 13 12 12 13 14 14 13 12 11 11 11 10 10 10 10 11 10 9 8 7 7 7 6 6 5 5 5 4 4
18 18 15 13 12 11 11 12 12 11 10 9 9 8 8 9 9 8 7 7 7 6 6 6 5 5 5 5 4 4 3 3
18 18 15 13 11 10 10 10 10 10 9 8 8 8 7 7 6 6 6 6 6 6 5 5 5 4 4 4 3 3 2 2

GFSFLT1_925_temp_069.txt.gz
Temp
12 12 11 11 11 11 11 11 11 11 12 13 13 14 15 15 16 16 16 17 16 17 16 16 16 16 16 15 16 15 15 15
12 11 11 11 11 11 11 11 11 11 12 13 14 14 14 15 15 16 16 16 16 16 16 16 15 16 16 16 15 15 15 14
11 10 10 11 11 11 11 10 11 12 12 13 13 14 15 15 15 15 15 15 16 16 16 16 16 16 16 16 15 15 15 14
12 11 10 10 11 11 10 10 11 11 12 13 13 14 15 16 16 16 16 16 16 16 16 16 16 16 16 16 15 15 15 14
12 11 10 10 10 11 10 11 11 12 12 13 13 14 14 15 16 16 16 16 16 16 16 16 16 16 16 16 16 15 14 14
13 12 11 10 10 11 11 11 11 11 12 12 13 13 14 14 15 15 16 16 16 16 16 16 16 16 16 16 15 15 14 14
14 13 12 11 10 10 10 11 11 11 12 12 12 13 13 13 14 14 15 16 17 16 16 16 16 16 15 15 15 15 14 14
15 13 12 11 10 10 10 10 10 11 11 12 12 13 13 13 13 13 14 15 16 16 17 16 16 16 16 15 15 14 13 13
16 15 14 13 11 11 11 11 11 11 11 11 11 12 12 13 13 14 15 14 16 16 16 16 16 16 16 15 13 12 12 13
16 16 15 14 12 12 11 12 11 11 11 11 11 12 12 12 13 14 14 14 15 15 15 16 16 15 15 14 13 12 12 12
18 16 16 15 14 13 12 12 12 12 12 12 12 12 12 13 13 13 14 14 14 15 14 13 13 14 14 13 12 12 11 11
18 18 17 16 15 14 13 13 13 13 13 13 13 13 13 13 14 14 14 15 14 13 13 13 12 13 12 12 12 11 11 10
18 18 18 17 16 15 14 13 14 14 15 14 14 14 15 14 14 14 15 15 15 14 13 12 12 12 12 12 11 11 10 10
18 18 17 18 17 16 15 14 14 14 14 15 15 15 16 14 14 15 15 15 15 14 14 11 12 12 12 11 11 10 9 8
16 16 18 18 18 17 16 15 14 14 14 14 14 14 13 14 14 15 14 14 13 12 11 11 11 11 10 10 9 9 8 7
17 17 16 17 18 18 17 17 14 14 14 14 14 14 14 14 15 15 13 13 13 12 11 10 10 9 9 9 8 7 6 5
18 17 15 14 15 16 17 16 15 15 14 14 14 13 14 13 14 12 11 11 11 11 10 10 9 8 9 8 7 6 5 5
17 17 16 14 14 15 16 15 15 14 13 12 11 12 12 12 12 11 10 10 9 9 8 8 7 7 7 6 6 5 4 4
18 18 15 14 13 12 13 12 12 11 11 10 10 10 10 9 9 8 8 8 8 7 7 7 6 6 5 5 4 4 3 2

GFSFLT1_925_temp_072.txt.gz
Temp
11 11 11 11 12 11 12 12 12 12 12 12 12 13 13 13 14 15 16 16 16 16 16 16 15 15 15 16 15 15 15 15
11 11 11 11 11 11 11 11 12 12 12 13 12 12 12 12 13 14 16 16 16 16 16 16 15 15 16 15 14 15 15 15
10 10 11 11 11 11 11 11 11 11 11 12 12 12 12 13 14 15 15 16 15 16 16 16 15 16 15 15 14 15 14 14
11 10 10 11 11 11 11 11 11 12 12 12 12 12 13 13 14 15 15 15 16 16 15 16 16 15 15 15 15 15 15 14
11 11 10 10 11 11 11 11 11 12 12 12 12 12 12 13 14 15 15 15 15 15 16 16 16 15 15 15 15 15 15 14
11 11 10 10 11 10 10 11 11 11 12 13 13 13 14 15 15 15 15 15 15 15 15 16 16 15 15 15 15 15 15 14
12 11 10 10 10 10 10 11 11 11 12 12 13 14 14 15 15 15 15 15 16 16 16 16 16 15 15 15 15 14 14 14
12 11 10 9 9 10 10 11 11 11 11 12 13 13 14 14 15 15 15 15 16 16 16 16 16 16 15 15 15 15 14 14
13 12 11 10 9 9 10 10 10 11 11 12 12 12 12 13 14 14 14 15 15 15 16 16 16 15 15 15 14 14 12 12
15 14 12 11 10 10 10 10 10 10 11 11 11 11 12 12 13 14 13 14 14 14 15 15 15 15 14 14 13 13 12 12
15 14 14 13 12 11 10 10 10 10 11 11 11 11 12 12 12 12 12 13 13 14 15 15 15 15 13 13 13 13 13 12
16 15 15 14 13 11 11 11 11 11 11 11 11 11 11 12 12 12 12 13 14 15 15 15 14 13 13 12 12 12 12 12
15 15 15 14 14 12 11 11 11 12 12 12 12 12 13 14 14 14 14 13 14 14 15 14 13 12 12 12 12 12 12 11
15 15 15 15 14 13 12 12 12 12 12 12 12 12 13 12 12 12 12 13 14 15 15 14 13 12 13 12 13 12 11 10
15 14 14 16 15 15 13 13 12 13 13 13 12 12 13 13 13 13 13 13 14 14 14 13 12 12 12 12 11 11 10 9
16 15 16 15 16 15 15 13 13 13 13 13 13 13 13 13 13 13 13 13 14 12 13 12 12 12 12 11 10 9 8 7
17 16 15 15 15 15 15 14 13 13 13 13 13 13 13 13 13 13 12 12 13 12 12 12 12 11 10 10 9 8 7 6
17 17 17 15 16 16 15 15 14 13 13 13 13 13 13 13 13 12 12 12 12 11 11 11 10 9 8 8 7 6 5 5
17 18 16 17 16 16 16 15 15 13 13 13 13 13 12 12 12 11 11 10 10 10 10 9 7 7 6 6 6 5 4 3

GFSFLT1_925_temp_075.txt.gz
Temp
14 13 12 12 11 12 12 12 12 12 12 12 12 13 13 13 14 15 16 16 16 16 16 16 16 15 15 14 14 14 14 15
13 12 12 11 11 12 12 12 12 12 12 12 12 12 12 13 14 15 15 15 15 16 16 15 15 15 15 14 14 14 14 14
13 12 12 11 11 11 11 12 12 12 12 12 12 12 12 13 13 14 15 15 15 15 14 15 16 15 15 14 14 14 14 14
12 12 12 12 11 11 11 11 11 11 12 12 12 12 12 12 11 13 14 14 15 15 15 16 16 15 15 14 15 15 13 14
14 12 11 12 12 11 11 11 11 11 12 12 12 11 11 11 12 12 12 13 14 15 15 16 15 15 15 15 15 15 14 13
14 13 12 12 12 11 11 11 11 11 12 12 12 11 12 12 12 12 13 14 14 14 15 15 16 16 16 16 15 15 14 13
16 14 12 11 11 11 11 11 11 11 11 12 12 12 13 12 12 12 13 14 14 15 15 16 15 15 16 15 16 14 14 14
16 14 13 11 11 11 10 11 11 11 11 11 12 12 13 13 13 13 13 13 15 15 15 15 15 15 15 15 15 14 14 12
16 16 14 12 11 10 10 10 11 11 11 11 12 12 12 13 13 13 14 13 14 15 15 15 15 14 15 15 15 13 13 13
17 16 15 13 12 11 10 11 12 11 11 11 11 12 12 12 13 14 14 14 14 15 15 15 15 16 15 15 15 15 13 13
17 16 15 14 13 12 11 12 12 12 11 11 11 11 12 12 13 13 13 14 14 14 15 14 14 15 15 15 14 13 13 13
18 17 16 14 13 12 12 12 12 12 12 11 11 11 11 12 13 13 13 13 14 15 15 14 14 14 15 14 13 12 12 12
19 18 16 15 14 13 12 12 12 12 12 12 11 11 11 11 13 14 13 13 14 13 13 13 14 15 14 14 13 12 11 12
19 18 17 16 15 14 13 12 12 12 12 11 11 11 11 11 12 12 12 12 12 12 12 13 14 14 14 13 12 11 11 11
20 18 18 17 16 15 14 13 12 12 12 12 11 11 11 11 12 12 11 11 11 12 12 13 12 12 12 12 12 11 11 11
21 20 19 18 17 15 14 14 12 12 12 12 12 12 12 12 12 11 12 12 12 12 13 13 14 11 12 11 11 11 10 10
22 20 19 18 17 16 15 14 13 13 13 13 13 12 12 12 12 12 12 12 12 12 13 12 13 11 11 12 12 11 10 9
21 21 19 18 17 16 15 15 13 13 13 13 13 13 12 12 12 12 12 12 12 11 11 11 11 11 11 11 11 10 8 6
20 20 20 20 18 17 17 15 14 13 13 13 13 13 13 13 12 12 12 12 12 11 11 11 11 11 11 10 8 7 6 5

GFSFLT1_925_temp_078.txt.gz
Temp
20 18 17 17 15 15 14 12 12 12 12 12 12 12 11 12 12 12 14 14 16 16 16 14 14 14 14 15 15 15 16 16
19 18 17 15 14 14 13 12 12 12 12 12 12 12 11 11 12 13 14 14 15 14 14 13 14 14 14 14 14 14 15 14
19 17 16 15 14 13 12 12 12 12 13 14 12 12 11 11 13 14 14 13 16 15 14 14 14 15 16 15 14 14 14 13
20 17 16 16 14 13 12 12 12 12 13 13 12 12 12 11 13 14 15 15 15 15 15 15 16 16 14 14 14 13 15 13
22 19 17 16 15 13 12 12 12 12 12 13 12 12 12 12 12 13 14 15 15 15 15 15 16 14 14 14 14 14 15 15
23 20 18 17 16 12 12 13 12 12 12 13 13 13 13 12 12 13 13 14 14 15 16 15 14 14 14 14 13 13 14 15
24 21 19 17 16 14 14 14 13 13 12 12 13 12 12 12 11 12 11 13 14 15 14 15 15 14 14 14 14 13 14 14
24 22 20 18 17 15 14 14 14 13 13 12 13 12 11 12 12 12 12 12 13 13 14 14 15 15 15 14 15 15 13 14
24 23 21 19 17 15 13 15 15 14 13 13 13 13 12 13 13 14 13 13 13 12 13 14 14 15 15 15 15 15 15 14
24 23 22 20 17 16 14 15 16 16 15 14 14 14 14 14 14 14 14 14 14 13 13 14 14 15 15 15 14 14 15 14
25 24 22 20 18 16 14 15 16 16 15 15 15 15 14 15 15 14 15 14 15 15 14 14 15 15 15 15 15 15 15 15
24 24 22 21 19 17 16 15 16 16 16 15 15 15 15 15 15 14 14 14 14 15 15 15 15 15 15 15 15 15 15 14
25 24 22 21 20 19 17 16 17 17 16 16 15 15 15 14 14 14 14 14 15 15 15 15 15 15 15 15 15 13 13 12
25 24 23 22 20 19 18 17 17 17 16 16 15 14 15 15 14 14 14 15 15 15 15 15 15 15 15 15 13 13 13 13
27 25 24 23 21 20 19 18 17 16 16 16 15 15 14 15 15 15 14 14 15 15 15 15 15 15 15 13 13 12 12 12
27 26 26 24 22 21 20 19 17 17 17 16 16 15 15 15 15 15 15 14 14 15 14 14 14 14 14 14 13 12 11 11
27 27 27 25 23 22 20 19 18 17 17 17 17 16 15 15 15 15 15 14 15 15 15 14 14 14 12 13 13 11 11 11
26 26 25 25 25 23 21 20 18 17 17 17 17 16 16 16 15 15 15 15 14 14 14 14 14 14 12 12 13 11 11 10
25 26 25 24 23 23 22 21 19 18 18 18 17 16 16 16 15 15 15 14 14 14 14 14 14 13 11 13 11 10 10 9

GFSFLT1_925_temp_081.txt.gz
Temp
26 24 22 21 21 19 17 14 13 13 13 13 12 12 11 12 11 11 11 11 12 13 13 14 15 15 15 15 16 16 17 18
26 24 22 21 19 18 16 13 13 12 12 12 12 11 11 11 11 11 11 12 13 13 14 14 15 15 15 15 15 16 17 17
27 23 22 20 19 17 16 14 12 12 12 12 12 12 11 11 11 11 12 13 15 16 16 15 15 15 15 15 15 16 16 16
27 24 22 20 19 17 16 13 13 13 13 12 12 11 11 11 12 12 13 15 15 15 14 14 15 15 15 15 16 16 17 15
28 24 22 21 19 17 15 13 13 13 13 12 12 11 12 12 12 12 13 14 14 14 14 14 14 15 15 14 15 15 16 15
28 25 22 21 20 18 15 13 13 13 13 12 12 12 12 12 12 12 13 13 13 14 15 14 15 15 15 15 16 14 15 15
29 26 23 22 20 18 16 15 14 13 13 13 14 13 12 11 11 12 12 13 13 14 14 15 15 14 14 15 15 14 15 15
29 27 25 23 21 18 16 16 15 13 13 13 14 14 13 12 12 12 12 12 13 14 14 14 14 15 14 15 15 15 15 15
29 28 26 23 21 19 17 16 16 14 13 14 14 14 14 13 13 12 12 12 13 14 14 14 14 14 15 15 15 15 14 14
29 28 26 24 22 20 18 18 18 16 14 14 14 15 14 14 14 13 13 13 13 13 14 13 14 15 15 15 15 15 15 15
29 28 26 24 23 21 19 18 19 18 16 14 14 14 14 15 14 14 14 15 15 15 14 13 14 14 15 15 16 15 15 15
29 28 27 25 23 21 19 18 19 20 18 17 16 15 15 15 15 15 15 15 15 15 15 14 14 15 15 15 15 15 15 15
28 28 27 25 24 22 20 19 19 20 19 18 17 17 17 15 15 16 15 15 15 15 15 15 15 15 15 15 15 15 16 16
29 28 27 26 24 23 22 20 19 19 20 19 18 17 17 17 16 16 16 15 15 15 16 16 16 16 16 16 16 16 16 16
30 29 27 27 25 24 23 21 19 19 19 19 18 17 17 17 17 16 16 15 15 16 16 16 16 16 16 16 16 16 16 16
29 29 29 28 26 25 24 23 21 20 20 19 19 18 17 17 17 17 16 16 16 16 16 16 16 16 16 16 16 16 16 15
28 28 29 29 27 25 24 23 22 20 20 19 19 18 17 17 17 17 16 16 16 16 16 16 16 16 16 16 16 16 15 14
26 26 27 28 28 27 25 24 23 21 20 20 19 19 18 17 17 17 17 16 16 16 16 16 16 16 15 15 15 15 14 12
23 24 25 26 26 26 26 25 23 22 21 20 20 19 19 18 18 17 17 17 16 16 16 16 16 16 15 15 14 14 13 12

GFSFLT1_925_temp_084.txt.gz
Temp
28 26 24 23 21 21 16 15 15 14 13 13 12 11 11 11 11 11 11 12 12 12 13 13 14 16 16 16 17 17 17 17
28 26 24 22 22 20 16 15 14 13 13 12 11 11 11 11 12 12 13 12 12 13 13 13 13 15 16 16 16 17 17 17
28 25 23 22 21 19 15 15 14 13 13 12 12 11 11 11 11 10 10 12 13 12 12 13 13 13 15 15 16 16 16 16
27 25 23 21 20 18 15 15 13 13 13 12 11 11 10 11 11 12 12 12 12 12 13 14 14 15 15 15 15 16 16 17
28 25 23 21 20 18 17 15 13 13 13 12 11 11 11 11 11 11 11 11 12 14 14 14 15 15 15 15 15 16 16 16
28 25 24 22 20 18 17 14 13 13 13 12 11 11 12 11 11 11 11 12 13 14 14 15 15 15 15 15 15 16 16 15
29 25 24 23 20 18 16 14 13 14 13 12 12 12 12 11 11 12 12 13 14 14 14 14 14 15 15 15 15 15 15 15
29 26 24 23 21 18 15 14 13 13 13 12 12 12 12 12 12 12 12 12 12 13 14 13 14 15 15 15 14 15 15 16
28 27 24 23 21 19 17 15 14 13 13 13 13 13 12 12 12 12 12 12 12 12 13 14 15 15 15 15 15 14 16 16
28 28 25 24 22 19 17 17 16 14 14 13 14 13 13 12 12 12 12 13 13 13 13 13 14 15 15 15 15 15 15 15
29 28 25 24 22 20 18 18 18 15 14 14 14 14 13 13 13 12 13 13 13 12 12 13 14 15 15 15 14 15 15 15
29 28 26 25 23 21 19 19 18 17 14 14 14 14 14 14 14 13 13 13 13 13 13 13 13 13 14 13 14 14 15 15
29 28 27 25 24 23 20 19 19 19 17 15 14 14 15 14 14 14 14 13 13 14 14 14 14 14 13 13 14 14 15 15
29 28 27 26 25 24 22 20 19 19 19 18 15 15 15 15 15 15 14 14 14 14 15 15 15 14 14 14 14 15 15 15
27 28 27 26 26 25 23 21 19 19 20 19 18 17 16 16 15 15 15 15 15 15 15 15 15 15 14 14 15 15 15 15
27 27 26 27 26 25 24 23 21 19 19 20 19 18 17 17 17 16 16 16 15 15 15 15 15 15 15 15 15 15 15 15
24 24 24 25 25 25 25 24 23 20 19 19 19 19 18 17 17 17 16 16 16 16 15 15 15 15 16 16 16 16 16 16
23 23 23 23 23 23 25 25 24 22 20 20 20 19 19 18 17 17 17 16 16 16 15 15 15 15 16 16 16 16 16 16
22 21 21 22 22 22 22 24 24 23 22 21 20 20 19 19 18 17 17 16 16 16 16 16 15 16 16 16 16 16 15 15

GFSFLT1_925_temp_087.txt.gz
Temp
24 23 23 22 20 18 17 16 15 15 14 14 13 12 13 13 13 14 14 14 14 13 13 14 15 17 16 16 17 17 17 17
24 23 22 22 18 16 15 15 14 14 13 12 11 11 11 11 11 13 14 14 13 12 12 14 15 16 17 17 17 17 17 17
22 21 21 21 18 17 15 15 14 14 12 12 12 11 11 11 11 11 12 12 12 12 13 14 14 16 16 17 17 16 17 17
22 20 20 19 17 16 15 15 14 14 13 12 11 11 11 11 10 11 11 12 12 13 13 13 13 15 16 16 17 17 16 17
22 20 19 18 16 17 16 15 14 14 13 12 11 11 11 11 11 11 11 11 12 12 13 13 13 14 15 16 17 17 16 16
22 20 20 18 17 16 16 15 14 13 12 12 11 11 12 11 10 10 10 10 11 12 12 13 13 14 15 16 16 16 16 16
22 21 19 18 17 16 15 14 14 13 12 12 11 11 11 11 11 10 10 11 12 12 13 13 14 14 15 15 15 16 16 16
22 20 19 18 16 15 14 14 14 13 12 12 12 12 11 11 11 11 11 11 12 13 13 14 14 14 15 15 15 15 16 15
22 21 20 18 16 15 14 14 14 13 13 12 12 12 11 11 11 11 11 12 12 13 13 13 14 14 15 15 15 15 15 15
22 21 20 18 16 14 14 14 14 14 13 12 12 12 12 12 11 12 12 12 12 13 13 14 14 14 14 15 15 15 15 15
23 21 20 19 17 15 14 14 14 13 13 13 12 12 12 12 12 12 12 12 12 12 13 13 13 14 14 15 15 15 15 15
21 22 21 20 18 16 15 14 14 13 14 13 13 13 12 12 12 12 12 12 12 12 13 13 12 13 13 13 13 14 14 14
22 22 21 20 18 17 16 16 16 14 14 14 14 14 13 12 12 12 12 12 12 12 12 12 12 12 13 13 13 13 13 14
22 21 21 20 20 18 16 17 17 16 14 14 14 14 14 13 13 13 12 12 12 12 12 12 12 12 13 13 13 13 13 13
22 21 20 21 21 19 18 17 17 17 15 14 13 14 14 14 14 13 13 13 12 12 12 12 12 12 13 13 13 13 13 13
21 21 19 19 18 20 19 18 17 18 18 15 14 14 14 14 14 14 14 14 13 13 12 13 13 13 13 13 13 13 13 13
20 20 20 19 19 19 18 19 18 17 18 18 16 14 14 14 14 14 14 14 13 13 13 13 13 13 14 14 14 14 13 13
19 18 17 16 15 16 16 18 19 18 17 18 18 17 16 15 15 14 14 14 14 14 13 14 14 14 14 14 14 14 13 13
18 16 15 13 12 12 14 16 18 15 18 17 18 18 17 16 16 16 15 14 14 14 14 14 14 14 14 14 14 15 13 14

GFSFLT1_925_temp_090.txt.gz
Temp
20 19 20 18 18 18 17 16 16 15 15 15 14 14 14 14 15 14 14 14 14 14 13 14 14 15 14 15 15 16 16 16
21 19 19 17 17 16 16 16 15 14 14 13 12 12 12 13 14 13 14 14 14 13 13 12 13 14 14 15 15 16 16 16
19 19 17 16 15 15 15 15 14 14 15 14 13 12 11 12 13 13 13 14 14 14 14 14 12 14 14 15 15 15 15 16
20 18 17 15 14 15 14 14 13 14 15 13 12 11 11 11 11 12 12 13 14 13 13 12 12 13 14 15 16 16 15 16
20 19 16 15 14 15 14 14 14 13 14 12 12 11 11 10 11 11 12 12 12 13 12 12 12 13 14 15 17 16 16 15
20 19 17 15 14 14 14 14 13 13 13 13 11 11 11 11 10 11 11 12 12 11 11 13 13 13 14 16 16 16 16 15
21 20 18 14 14 14 14 13 13 13 13 12 12 11 11 11 10 10 11 11 11 12 12 12 13 13 14 16 16 17 17 16
20 18 16 14 13 13 13 13 12 12 13 12 12 12 11 11 11 11 10 11 11 11 12 12 12 12 13 13 14 16 16 16
20 18 17 15 14 13 13 12 12 12 12 12 12 12 12 11 12 11 11 11 11 12 12 13 13 13 13 13 15 16 16 16
19 18 17 16 14 13 13 13 13 12 12 12 12 12 12 11 11 12 11 11 12 12 12 13 13 13 14 14 14 15 15 15
20 19 17 17 15 14 13 13 13 13 12 12 12 12 12 12 11 12 11 12 12 12 12 13 13 14 14 14 14 15 15 15
20 19 18 17 15 14 13 13 13 13 12 12 12 12 12 12 12 12 12 12 12 12 12 13 13 13 13 13 14 14 14 14
20 20 18 16 15 14 13 13 13 13 13 12 13 12 12 11 11 12 11 12 12 12 12 12 12 13 13 13 13 13 13 13
18 18 18 17 15 14 14 13 13 13 13 13 13 13 12 12 11 12 12 11 11 12 12 12 12 12 12 13 12 13 13 13
19 17 15 16 17 16 15 14 14 13 13 13 13 13 13 13 12 12 12 11 11 11 11 12 12 12 12 12 12 12 12 12
18 17 16 16 15 15 16 16 15 14 13 13 13 13 13 13 13 13 12 11 11 11 11 11 11 11 12 12 12 12 12 12
17 16 15 14 13 14 14 16 15 15 14 13 13 13 13 13 13 13 13 12 12 11 11 11 11 11 11 12 12 12 12 12
14 13 12 11 10 11 11 12 12 15 15 15 14 13 13 13 13 13 13 12 13 12 12 11 11 11 12 12 12 12 12 12
11 10 9 8 8 9 9 9 9 10 11 11 12 14 14 13 13 13 13 13 13 13 13 12 12 12 12 12 12 13 12 12

GFSFLT1_925_temp_093.txt.gz
Temp
20 19 19 17 17 17 17 16 16 15 15 15 14 14 14 14 14 14 14 14 14 14 13 13 14 14 13 14 15 14 15 15
21 18 17 16 16 16 16 15 15 14 14 13 13 13 14 14 14 14 14 14 14 14 13 13 13 13 14 14 13 14 14 14
18 17 16 15 14 14 14 14 14 14 13 13 12 12 14 14 14 14 14 14 14 14 14 13 13 13 13 13 14 13 13 14
18 17 15 15 14 14 14 14 14 14 13 14 13 12 13 13 12 13 13 13 13 14 13 13 13 13 13 14 14 14 13 13
18 17 15 15 14 14 14 13 13 13 14 14 14 12 11 11 12 12 11 12 13 13 13 13 12 12 13 14 14 15 15 14
19 17 17 15 14 13 13 13 13 13 13 14 14 12 11 11 11 11 12 12 13 13 13 12 12 12 13 14 14 15 16 14
20 19 17 15 13 13 13 13 12 13 13 14 14 12 12 10 11 11 11 12 12 12 12 12 11 11 12 12 13 15 15 16
19 18 16 13 13 13 13 13 12 12 12 13 13 13 12 11 11 11 11 11 11 11 11 11 10 11 12 12 13 12 14 15
19 18 16 14 13 13 13 12 12 12 12 12 13 13 12 11 12 11 11 11 12 11 11 11 11 10 11 11 12 13 14 14
19 18 16 15 13 13 12 12 12 12 11 12 12 13 12 11 11 11 11 11 11 12 12 12 11 11 12 12 13 13 14 14
20 18 16 15 14 13 12 12 12 12 12 11 12 13 13 13 12 11 11 11 11 12 12 12 12 12 13 12 12 13 13 13
18 17 16 15 14 13 12 12 12 12 12 12 11 12 12 13 12 12 12 12 12 12 12 12 12 12 12 12 12 12 12 13
17 17 16 14 14 13 12 13 12 12 12 12 11 12 12 12 12 12 12 11 12 12 12 12 12 12 12 12 12 13 13 13
17 16 15 14 13 13 13 13 13 12 12 12 11 11 12 12 12 12 12 12 11 11 12 12 12 12 12 12 12 12 12 13
15 14 14 14 14 14 13 13 13 13 12 12 12 12 12 12 13 13 12 11 11 11 11 11 11 11 12 12 12 12 12 12
15 14 13 13 13 13 14 14 14 13 13 12 12 12 12 12 12 12 13 12 11 11 11 11 11 11 11 11 11 12 11 11
12 11 11 10 11 10 10 10 11 13 13 12 12 12 12 12 12 12 12 12 12 12 11 11 11 11 11 11 11 11 11 11
10 9 8 8 8 8 8 8 9 11 13 13 12 13 13 13 13 12 12 12 11 11 11 11 11 11 11 11 11 11 11 11
7 7 6 5 6 8 7 7 8 8 7 8 7 9 10 11 12 12 12 12 12 12 12 11 11 11 11 11 11 11 11 11

GFSFLT1_925_temp_096.txt.gz
Temp
20 20 20 19 18 18 18 17 16 15 15 15 15 15 15 15 16 15 15 14 14 14 13 14 13 13 13 13 14 14 15 14
20 22 19 17 17 16 17 16 16 15 14 14 14 14 14 14 14 14 14 14 14 14 14 13 13 13 13 14 13 13 12 13
18 18 16 16 15 15 15 14 14 14 14 13 13 12 13 14 14 14 14 14 14 14 14 13 13 13 12 13 12 12 12 12
17 15 15 15 14 15 15 13 14 14 13 13 12 11 12 12 14 13 14 14 13 14 14 13 13 13 12 13 13 13 12 12
18 16 15 14 14 14 14 14 13 13 13 12 12 11 11 11 13 13 13 13 13 14 13 13 13 13 12 12 13 13 13 12
17 17 16 15 14 14 14 13 13 13 13 13 12 12 12 11 12 12 13 13 12 13 14 13 13 12 12 12 13 13 13 13
18 18 16 14 14 14 13 13 13 12 12 13 14 13 11 10 11 12 11 11 12 13 13 13 12 13 12 11 13 13 14 13
17 17 15 14 14 14 13 13 13 12 12 13 13 13 12 12 10 11 11 11 11 12 12 12 12 11 12 12 12 13 13 13
17 17 17 14 14 14 13 13 12 12 12 12 13 13 13 12 11 11 11 11 12 12 12 12 12 11 11 10 11 11 12 13
17 18 17 14 14 14 13 13 12 12 12 12 13 13 12 12 11 11 12 11 12 11 12 11 11 10 10 10 10 11 12 13
17 18 16 14 14 14 13 13 12 12 12 11 12 12 12 13 12 11 11 12 12 11 11 11 10 10 10 10 10 11 11 12
16 16 15 14 14 13 12 12 12 12 12 11 11 12 12 13 12 11 11 11 11 12 11 11 11 11 11 10 11 11 11 11
15 15 14 13 13 12 12 12 12 12 12 12 11 12 12 12 12 12 11 11 11 12 12 12 12 11 11 11 12 12 12 12
15 14 13 12 12 12 12 12 12 12 12 12 12 11 11 12 12 12 12 11 11 11 11 11 12 12 12 12 12 12 12 12
13 12 13 13 12 12 12 12 13 12 12 12 12 12 11 11 12 12 12 12 12 11 11 11 11 11 11 12 12 11 11 12
11 10 10 11 11 11 12 12 12 12 12 12 12 12 11 11 12 12 13 12 12 12 12 11 11 11 11 11 11 11 11 11
9 8 8 9 8 8 9 9 10 12 12 12 12 12 11 11 12 12 12 12 12 12 11 11 11 11 11 11 11 10 11 11
7 7 6 7 7 7 7 7 8 8 8 8 9 11 12 12 12 12 12 12 12 12 12 11 11 11 11 11 11 11 10 11
5 5 4 4 5 6 6 6 6 6 5 5 5 6 7 8 10 11 12 12 11 11 11 12 12 12 12 12 11 11 10 10

GFSFLT1_925_temp_099.txt.gz
Temp
23 22 21 19 18 17 16 16 16 16 16 15 15 15 15 15 16 16 15 14 14 14 13 13 13 13 13 12 12 12 13 13
22 22 21 19 17 16 16 15 15 15 15 15 14 14 14 14 14 14 15 14 14 14 14 13 13 13 13 12 12 12 12 12
22 22 20 18 17 16 16 15 14 14 14 14 14 14 14 14 14 14 14 14 14 14 14 13 13 13 12 12 11 11 12 12
23 22 20 18 17 16 16 16 14 14 14 14 14 13 13 13 13 13 14 14 14 14 14 13 13 13 12 12 12 13 12 12
22 23 21 18 17 16 16 15 14 14 14 13 13 13 13 13 12 12 13 14 13 14 13 13 13 13 12 12 12 13 12 13
22 23 22 20 17 16 15 15 14 13 13 13 12 12 12 12 12 12 12 12 12 12 13 13 13 13 13 13 12 13 13 13
21 22 21 19 16 15 15 14 14 13 12 13 12 12 13 12 11 12 12 12 12 12 13 13 12 12 12 12 12 12 13 13
19 21 20 17 16 15 15 14 13 13 12 12 12 12 12 11 11 12 12 12 11 12 13 13 13 12 12 12 11 11 12 12
18 19 20 17 16 16 15 14 13 13 12 12 12 12 12 12 12 12 11 11 11 12 12 13 13 13 12 11 11 11 11 12
18 19 19 17 16 15 15 14 14 13 12 11 12 12 12 12 12 11 11 11 11 12 12 12 12 12 12 12 11 10 11 12
17 18 19 17 16 15 15 14 13 12 12 12 12 12 12 12 11 11 11 12 12 12 11 12 11 11 11 11 10 10 10 10
16 16 16 15 15 15 14 13 13 12 12 11 12 12 12 12 11 11 11 12 12 12 11 11 11 11 11 10 10 10 10 11
15 15 15 15 15 14 13 13 12 12 12 11 12 11 11 12 11 11 11 11 11 12 11 11 11 10 10 10 10 10 11 11
12 13 13 14 13 12 12 12 12 12 12 12 11 11 11 11 11 11 11 11 11 11 11 11 11 11 10 10 10 10 10 10
9 10 10 10 12 12 12 12 12 12 12 12 12 12 11 11 11 11 11 10 11 11 11 11 11 11 11 11 11 11 11 11
8 7 8 8 8 9 9 11 12 12 12 12 12 12 12 12 11 11 11 11 10 11 11 11 11 11 11 10 11 11 11 11
7 6 6 7 7 7 7 7 10 12 12 12 12 12 12 12 12 11 10 11 10 10 10 10 10 11 11 12 11 11 11 11
5 5 5 5 5 6 5 5 5 6 6 6 8 10 10 11 11 11 11 11 11 10 10 10 10 11 11 12 12 11 11 11
3 3 3 3 4 5 4 3 3 3 3 3 4 5 6 7 8 8 9 10 11 11 11 11 11 9 9 9 11 11 10 10

GFSFLT1_925_temp_102.txt.gz
Temp
28 28 27 26 25 24 22 20 18 16 16 18 18 15 16 15 15 15 15 15 15 15 15 14 14 13 12 13 13 13 14 16
28 28 27 26 25 23 22 20 19 15 15 17 16 15 15 15 15 15 15 15 15 14 14 13 13 12 12 12 12 12 13 14
28 28 27 26 25 23 22 21 20 16 17 17 17 15 14 15 14 15 15 15 14 14 14 13 13 12 12 12 12 12 12 14
27 27 27 27 25 23 22 21 20 18 19 18 17 16 14 14 14 14 14 15 14 14 14 14 13 13 12 12 13 13 12 13
26 26 27 27 26 24 22 22 21 18 19 18 16 16 16 16 15 14 14 14 14 14 14 13 13 13 12 12 12 13 13 13
25 26 26 26 26 24 22 21 21 19 18 18 17 18 18 17 16 14 14 15 14 14 14 13 13 13 12 12 12 12 13 14
23 24 24 25 26 24 21 20 20 19 17 17 17 18 18 17 15 16 15 15 15 14 14 13 13 13 12 12 12 12 13 14
23 23 25 25 25 22 20 20 20 18 16 17 17 16 17 17 16 17 17 15 14 14 14 13 13 13 12 12 12 12 12 13
22 24 24 25 24 21 20 20 19 16 14 16 16 15 17 17 16 17 16 16 14 13 13 13 12 12 13 12 11 11 11 12
18 22 24 24 23 21 20 19 19 15 14 14 14 16 17 16 16 16 15 13 12 12 12 12 13 12 12 12 12 11 11 11
14 20 22 23 22 20 18 17 17 14 13 13 14 16 16 16 15 14 14 13 12 12 12 12 12 12 12 12 11 11 11 11
12 15 19 21 20 19 16 16 15 14 13 13 15 16 16 15 15 14 14 13 12 12 12 12 12 12 12 11 11 11 11 10
10 11 15 18 19 17 15 15 14 13 12 13 15 15 15 15 15 14 13 13 12 12 11 12 11 11 11 11 11 10 10 10
9 9 10 12 15 15 15 14 12 12 12 13 14 14 15 15 15 14 13 13 13 12 12 12 11 12 11 11 11 11 11 11
8 7 8 8 9 12 13 12 12 12 12 13 13 13 15 15 14 14 13 13 13 13 12 12 12 12 11 12 11 11 12 12
6 6 6 7 7 7 8 12 12 12 12 13 13 13 13 13 13 13 13 13 13 13 13 13 13 12 12 12 11 11 12 11
5 4 5 6 6 6 6 6 6 8 8 9 12 12 12 12 13 12 12 12 13 13 13 13 13 13 13 12 12 12 12 12
3 3 3 4 4 4 4 4 4 4 4 5 6 7 8 10 11 11 12 12 13 13 13 13 13 12 12 12 11 12 13 13
1 1 1 2 4 4 3 3 3 2 2 3 3 4 4 6 7 7 9 9 10 11 10 11 11 9 10 11 10 10 10 11

GFSFLT1_925_temp_105.txt.gz
Temp
30 30 30 30 30 29 28 25 22 21 20 21 21 21 18 18 18 18 17 17 17 16 16 16 15 14 14 14 14 14 14 15
30 30 30 30 29 28 27 26 22 20 18 20 22 20 16 16 15 17 18 18 17 16 16 14 14 14 14 13 13 14 14 14
30 30 30 29 29 27 26 26 23 21 18 20 22 19 16 17 16 17 17 18 17 16 15 14 13 13 12 13 13 13 13 13
29 30 29 29 29 28 26 25 24 22 20 20 21 19 17 17 16 16 16 17 17 16 15 13 13 13 12 12 13 13 13 13
28 28 29 28 28 28 27 26 25 23 20 22 21 21 19 17 17 16 17 16 16 15 14 14 13 13 12 12 12 12 13 13
26 26 27 27 28 28 27 26 25 24 21 22 22 21 20 19 19 17 16 16 16 15 14 14 13 13 12 13 12 13 12 13
25 26 25 26 27 27 27 26 25 24 22 21 21 20 21 21 20 17 15 15 16 16 14 14 13 13 13 13 13 13 13 13
23 23 26 26 26 27 27 25 25 24 22 21 21 20 21 21 19 18 19 16 16 16 15 14 13 13 13 13 12 12 13 13
21 21 23 26 26 26 27 26 24 24 22 21 21 20 21 20 19 19 19 17 16 15 15 15 13 13 13 13 12 13 13 13
18 18 18 21 25 26 26 25 24 24 21 20 20 20 20 20 19 19 19 18 16 15 15 15 14 13 13 12 12 12 12 12
15 14 14 16 23 26 24 23 23 21 16 17 19 19 19 19 18 18 18 16 15 14 14 14 14 13 13 12 12 11 11 11
12 11 10 12 15 24 22 22 22 16 15 15 17 18 19 19 18 17 16 14 15 14 13 13 12 12 12 12 12 12 12 11
12 9 8 9 9 19 18 18 16 15 14 14 16 18 18 18 17 17 16 14 14 14 14 12 12 12 12 12 12 12 11 11
11 8 6 7 8 10 15 15 13 13 13 14 16 17 17 17 17 16 14 14 14 14 14 13 13 12 11 12 11 11 11 11
10 7 5 5 6 7 11 13 13 12 13 14 14 15 16 17 17 15 14 14 14 14 14 13 12 12 13 13 13 12 12 12
7 7 4 3 5 5 6 7 12 12 13 13 13 14 15 16 16 15 14 14 13 13 13 13 12 12 13 13 13 12 13 13
4 4 3 2 4 4 4 4 5 7 7 8 12 13 14 14 14 14 13 13 14 13 13 13 14 14 13 13 13 14 13 13
2 1 1 1 2 3 3 2 3 3 3 4 6 8 9 11 12 13 13 13 13 13 13 13 13 10 12 12 12 12 13 13
1 0 -0 0 1 1 2 1 1 2 2 2 3 4 5 5 6 7 8 9 10 10 9 10 8 7 9 11 12 11 12 10

GFSFLT1_925_temp_111.txt.gz
Temp
27 28 29 30 30 29 25 23 23 22 22 22 21 21 20 20 19 19 18 18 18 17 17 17 17 16 16 15 16 15 15 15
27 28 29 30 30 28 24 23 21 21 21 21 21 21 19 19 19 19 18 17 17 17 17 16 16 16 16 16 15 15 14 14
27 27 27 28 29 29 25 22 21 21 21 21 20 21 20 20 19 18 18 17 17 17 16 16 16 16 16 16 15 14 14 14
25 25 25 26 27 28 24 22 21 20 20 20 21 21 20 19 18 18 18 18 17 17 16 16 17 17 15 15 14 14 13 13
21 20 20 22 24 26 22 22 21 21 21 21 20 19 18 18 18 18 17 17 17 17 17 16 16 16 14 13 13 13 13 14
18 17 18 17 17 17 18 21 21 20 20 21 20 19 19 17 17 17 17 17 17 17 17 16 16 15 13 13 12 13 13 13
16 16 15 15 13 14 15 17 19 20 20 20 20 19 18 17 17 16 16 17 17 16 16 16 16 14 13 12 12 13 13 14
13 13 12 11 11 12 13 13 14 18 20 20 20 19 19 18 17 16 15 16 16 16 16 16 16 14 13 12 12 12 13 13
12 11 10 9 9 10 10 10 11 15 19 20 20 19 19 18 18 16 16 16 15 16 16 16 15 15 13 12 12 12 13 13
10 9 8 8 7 8 8 8 9 15 19 20 19 20 20 18 18 17 16 17 16 16 16 15 16 15 14 12 12 12 13 13
9 8 7 6 6 6 7 8 9 18 20 19 19 20 21 19 19 18 17 17 16 16 16 15 15 14 14 12 13 12 13 13
7 7 6 5 6 5 5 6 7 14 18 19 19 19 21 19 20 18 18 17 17 16 15 15 15 13 14 13 12 12 12 12
6 6 5 5 5 4 4 4 6 8 15 16 18 19 20 19 19 19 18 17 16 16 16 15 14 13 13 13 13 12 12 12
5 5 4 4 4 3 3 3 4 6 12 15 15 17 19 19 18 18 17 16 15 15 15 15 15 13 13 13 13 12 12 12
4 3 3 3 3 3 3 3 3 4 7 10 12 14 15 17 17 16 15 15 14 14 15 15 14 13 13 13 12 12 12 12
2 2 2 2 2 3 2 2 2 2 3 5 6 10 14 15 15 15 15 14 14 14 14 13 13 13 12 12 12 12 12 12
2 1 1 1 1 2 2 2 1 1 2 3 3 5 7 11 14 13 14 14 14 13 13 13 12 12 12 12 12 12 12 12
1 0 0 0 0 0 1 1 1 1 1 1 2 2 2 2 6 11 12 12 13 12 12 12 11 11 11 12 12 12 12 11
1 -0 -0 -0 -0 -0 0 0 0 0 -0 0 1 1 1 1 1 1 4 6 7 8 7 7 8 7 9 11 11 11 10 10

GFSFLT1_925_temp_114.txt.gz
Temp
25 26 28 29 29 25 24 22 22 21 20 20 19 20 20 20 19 19 19 18 18 18 17 17 17 17 16 16 15 15 14 14
25 27 27 28 28 26 25 22 21 20 20 19 18 19 20 20 20 20 19 18 18 18 17 17 16 17 17 16 15 15 14 14
21 23 25 24 23 23 24 23 21 20 20 20 19 19 18 18 19 19 19 18 18 18 17 17 16 16 16 16 15 14 14 14
18 16 15 16 16 17 20 21 21 20 20 19 19 18 17 17 18 19 19 18 18 17 17 17 16 16 15 15 15 15 14 14
15 14 13 12 13 15 17 19 19 20 20 19 18 18 18 18 17 17 18 18 18 17 16 16 16 16 16 16 15 16 14 13
12 12 11 10 10 11 14 16 18 19 19 19 19 19 19 19 17 17 17 18 18 17 17 16 16 16 16 17 16 15 14 13
10 10 9 9 8 9 10 12 14 16 17 19 19 19 18 17 17 16 16 17 17 17 17 16 16 16 16 15 15 13 13 13
8 7 7 7 7 7 8 8 10 13 15 17 18 19 18 18 16 16 15 15 16 16 16 16 16 15 15 14 13 12 12 13
7 7 6 6 6 6 7 7 8 9 12 16 17 18 17 17 17 16 16 16 16 16 16 16 16 15 15 14 12 12 12 12
6 6 5 5 5 5 6 6 7 8 10 14 17 17 17 17 17 17 16 16 16 16 16 15 15 15 16 14 12 11 12 13
5 5 5 5 4 5 5 5 5 6 9 13 16 17 17 17 17 17 17 17 16 16 15 15 15 15 16 14 12 12 12 12
5 5 4 4 4 4 4 4 4 5 7 12 16 17 17 17 17 18 17 17 17 16 15 14 14 14 14 13 13 12 12 12
4 4 4 3 3 3 3 3 3 4 5 9 13 16 16 16 16 17 16 16 16 17 16 14 13 14 13 13 12 12 12 12
3 3 3 2 3 2 3 2 2 3 4 5 8 12 14 15 16 17 15 15 15 16 15 14 14 13 13 13 13 12 12 12
3 2 2 2 2 2 2 2 2 2 3 4 4 6 11 14 15 16 15 15 15 15 15 15 15 15 14 13 13 12 12 12
2 2 1 1 1 1 1 1 1 1 2 2 3 4 6 12 13 14 14 14 15 15 15 15 14 15 13 13 13 12 12 12
1 1 1 0 0 0 0 0 0 1 1 1 2 2 3 4 8 12 13 14 14 14 14 14 13 12 12 12 12 12 12 12
1 0 -0 -0 -0 -0 -1 -1 -1 -1 0 0 1 1 2 2 2 4 6 9 11 12 12 12 11 11 12 12 12 12 12 12
0 -1 -1 -1 -1 -0 -1 -1 -2 -2 -2 -1 -0 -0 0 1 1 1 -0 1 2 2 4 5 5 6 9 12 12 11 11 11

GFSFLT1_925_temp_117.txt.gz
Temp
23 26 25 26 26 24 23 22 22 21 19 18 18 18 18 19 20 20 19 19 18 18 17 17 17 17 16 16 15 15 14 14
23 25 26 23 22 22 22 21 21 19 18 18 17 17 19 19 19 19 19 19 18 18 17 17 17 16 16 17 15 15 14 14
19 15 14 15 15 19 21 21 21 20 19 19 18 18 17 18 18 19 19 19 18 18 18 17 16 16 16 17 16 14 14 14
14 13 10 10 11 12 16 19 20 19 19 18 19 17 17 16 17 18 19 18 18 18 18 17 17 16 17 17 15 15 14 14
11 10 9 8 9 11 13 16 19 19 19 19 17 18 17 17 18 18 19 19 18 18 18 17 17 16 16 16 16 15 14 14
8 8 8 7 7 8 10 13 15 17 19 19 18 18 18 17 17 17 17 19 18 18 17 17 17 16 15 15 15 14 14 14
7 7 7 6 6 7 8 10 12 14 15 16 17 17 18 17 16 16 15 16 17 17 17 17 16 16 16 15 15 15 14 14
5 5 5 5 5 5 6 8 9 10 12 14 15 17 18 19 20 16 15 15 15 17 16 16 16 16 16 15 15 14 15 14
5 5 5 4 4 5 5 6 7 8 9 9 12 15 16 18 20 17 17 16 16 16 15 15 15 16 16 15 15 14 14 13
5 5 5 4 4 4 4 5 5 6 7 8 10 12 15 17 17 17 17 17 16 16 15 15 15 15 16 15 15 14 13 12
5 4 4 4 4 3 3 4 4 4 5 7 9 12 13 16 16 17 17 17 16 16 15 14 14 14 16 15 14 15 13 12
4 4 3 3 3 3 3 3 3 3 4 5 7 10 14 15 15 16 16 15 15 15 15 14 14 14 15 14 14 15 13 12
3 3 2 2 2 2 2 2 2 2 3 4 5 7 11 15 15 15 15 15 15 15 15 14 14 13 13 13 13 14 13 12
3 3 2 1 1 1 2 1 1 2 2 3 3 4 6 10 14 15 15 14 14 14 14 14 13 13 13 13 14 14 13 12
2 2 1 1 1 1 1 1 1 1 1 2 2 3 4 6 10 13 14 14 14 14 14 14 14 13 13 13 13 13 12 12
1 1 1 0 1 0 -0 -0 -0 -0 0 1 1 2 2 3 6 10 12 13 14 14 13 13 13 13 13 13 13 13 12 12
0 0 -0 -0 -0 -0 -1 -1 -1 -1 -1 -1 0 1 1 1 2 4 6 8 11 13 13 13 13 13 13 13 14 13 12 12
-1 -1 -1 -2 -1 -1 -1 -2 -2 -2 -2 -2 -1 -1 0 0 1 1 2 1 2 5 7 10 9 10 12 12 12 12 12 12
-2 -3 -3 -3 -2 -2 -1 -2 -3 -3 -3 -3 -2 -2 -1 -1 -0 -1 0 1 1 -0 1 1 3 5 9 11 12 12 12 11

GFSFLT1_925_temp_120.txt.gz
Temp
22 23 23 23 22 22 21 21 21 21 18 17 18 19 19 19 19 20 19 19 18 18 18 18 18 17 16 16 15 15 14 14
19 18 18 20 20 19 20 19 20 18 17 17 16 16 17 19 19 19 20 19 18 18 17 17 17 17 16 16 16 15 14 15
13 11 11 12 12 14 17 19 19 18 18 17 18 17 17 17 17 18 18 19 19 18 18 17 17 16 16 16 16 15 14 15
11 10 8 9 10 10 11 15 18 19 18 17 18 17 17 17 17 17 19 20 19 19 18 18 17 16 16 16 17 16 14 14
8 8 8 6 7 9 10 12 15 17 18 17 18 18 17 17 17 16 19 20 20 19 18 18 17 16 16 17 17 17 15 14
5 5 6 6 6 7 9 10 12 15 17 18 18 17 18 18 17 17 17 16 16 18 18 17 17 16 15 17 17 16 16 15
6 5 5 5 5 5 7 8 9 11 14 15 16 17 17 17 17 16 16 16 16 17 17 17 17 17 15 15 15 16 15 16
5 5 5 5 5 5 5 6 7 9 11 12 13 14 15 17 17 16 15 15 16 16 15 16 16 16 15 15 14 14 14 14
5 5 5 4 4 4 4 5 5 6 8 10 11 12 13 14 16 16 16 16 19 22 19 15 15 15 15 15 15 15 15 14
4 4 4 4 3 3 3 4 4 4 5 6 8 10 11 12 14 16 16 17 20 22 18 15 15 15 14 15 14 14 14 15
4 4 3 3 3 3 2 2 3 3 4 4 6 7 9 11 13 15 16 17 18 19 16 15 14 15 14 14 14 14 14 14
2 3 2 2 2 2 2 2 2 2 3 3 4 5 7 10 12 14 15 15 16 16 15 15 14 13 14 14 14 13 14 14
1 1 2 2 2 2 1 1 1 1 2 2 3 3 4 6 10 12 15 15 15 15 14 14 13 14 14 13 13 13 14 13
1 1 1 1 1 1 1 0 0 0 1 1 2 2 3 3 5 9 12 15 14 14 14 14 13 13 13 13 13 13 13 14
1 0 0 0 0 0 -0 -0 -0 -0 0 -0 0 1 1 2 3 5 8 12 13 14 13 13 13 13 13 13 13 13 13 13
-0 -0 -0 -1 -1 -1 -1 -1 -1 -1 -1 -0 -0 0 1 1 1 2 4 7 9 11 13 13 13 13 13 13 13 12 12 12
-1 -1 -1 -2 -2 -1 -2 -2 -3 -2 -2 -2 -1 -1 -0 -0 -0 0 1 2 5 6 8 8 10 11 13 13 13 12 12 12
-3 -3 -3 -3 -3 -2 -2 -3 -3 -3 -3 -3 -3 -2 -1 -1 -1 -1 -0 -0 1 3 3 3 2 3 6 12 12 13 12 12
-4 -4 -5 -4 -4 -3 -2 -3 -4 -4 -4 -4 -4 -3 -3 -2 -1 -1 -1 -1 -1 -1 -0 1 1 1 4 7 10 12 12 12

GFSFLT1_925_temp_123.txt.gz
Temp
20 21 21 21 22 21 21 19 20 18 17 17 16 16 16 16 18 19 18 17 17 17 16 17 18 17 16 16 15 15 15 14
18 15 14 16 16 19 20 19 18 18 17 17 17 16 16 16 16 17 18 16 17 17 17 18 18 16 16 16 15 15 14 15
16 12 11 10 10 11 16 17 18 17 18 18 18 18 17 16 16 16 16 17 19 18 18 18 18 16 16 15 15 15 14 15
10 10 9 9 8 9 11 14 17 18 18 18 17 17 17 16 16 16 16 16 17 18 17 16 18 17 16 16 16 15 15 14
8 8 8 7 7 7 9 11 14 16 17 18 17 18 18 17 17 16 16 16 16 17 18 16 16 16 16 16 15 15 15 15
7 7 7 6 6 6 8 10 10 13 15 17 17 18 18 19 17 16 16 17 16 16 16 16 16 16 16 15 15 15 16 16
6 6 5 5 5 6 7 8 8 9 12 14 16 17 18 17 17 17 16 16 16 16 16 16 16 16 15 15 16 15 15 16
5 5 5 4 4 4 5 6 6 7 8 10 11 13 14 15 17 16 16 16 16 16 16 16 17 20 17 15 15 15 15 15
4 4 4 4 4 3 4 5 5 5 6 7 9 10 10 11 13 15 16 16 16 16 15 15 16 17 16 15 15 15 15 15
3 3 3 3 3 3 2 3 4 4 4 5 6 7 9 9 10 12 14 16 16 15 15 15 15 16 18 15 15 15 14 14
2 3 3 3 2 2 2 2 2 2 3 4 4 5 7 8 9 11 13 14 15 15 15 15 15 15 16 15 14 14 14 14
1 1 1 2 2 1 1 1 1 1 1 2 3 3 4 5 6 8 11 13 15 15 15 15 15 14 15 14 14 14 14 14
0 -0 -0 0 1 1 1 0 1 1 1 1 1 2 2 3 4 6 8 12 14 15 14 14 14 14 14 14 13 13 13 13
-0 -1 -1 -1 -1 -0 -0 -0 -0 1 1 1 1 1 1 1 2 3 5 8 11 13 14 14 14 14 14 14 13 13 13 13
-0 -1 -1 -2 -1 -1 -1 -1 -1 -0 0 -0 -0 0 0 0 1 1 2 3 6 9 11 13 13 14 13 13 13 13 13 13
-1 -1 -2 -2 -2 -1 -1 -2 -2 -1 -1 -1 -1 -1 -0 0 -0 0 0 1 1 2 5 7 9 9 7 10 12 13 12 12
-2 -2 -3 -3 -2 -2 -2 -2 -3 -2 -2 -2 -2 -1 -2 -1 -1 -0 -1 -1 -1 0 0 1 1 2 5 7 9 12 12 12
-3 -3 -4 -4 -4 -3 -2 -3 -3 -3 -4 -3 -3 -2 -2 -2 -2 -2 -1 -1 -2 -2 -2 -1 -1 -1 2 6 9 10 12 12
-4 -5 -5 -5 -5 -4 -3 -3 -4 -4 -5 -5 -4 -4 -4 -3 -2 -2 -2 -2 -2 -3 -3 -3 -2 -2 0 2 5 7 8 8

GFSFLT1_925_temp_129.txt.gz
Temp
19 19 20 21 21 22 21 21 22 25 23 21 22 23 23 22 23 22 22 19 18 20 19 18 19 21 19 18 18 18 20 21
15 15 16 17 18 17 17 18 18 21 23 21 22 23 23 21 22 22 22 21 18 19 19 18 18 18 18 17 17 17 18 19
12 11 12 14 15 16 16 16 17 19 24 23 22 23 23 22 21 21 21 21 19 18 18 19 17 17 17 17 17 17 18 18
9 9 8 9 10 11 11 13 16 18 19 23 23 24 24 23 23 22 21 20 19 18 17 20 18 17 18 17 16 17 17 16
7 6 6 6 7 7 7 9 12 15 14 15 23 23 25 24 24 23 23 21 21 19 17 18 18 17 19 18 17 17 17 17
6 4 3 4 5 5 5 7 9 11 11 12 18 21 25 24 24 23 22 22 21 21 18 19 19 20 19 20 17 16 17 18
5 3 2 2 3 3 4 5 7 9 10 10 14 19 20 20 20 21 20 19 19 19 20 20 19 20 19 18 18 16 16 17
4 3 1 1 2 3 4 5 5 6 8 8 9 12 15 15 14 13 18 18 17 17 18 19 18 19 18 18 17 16 16 17
2 2 -0 0 0 2 3 4 4 5 7 7 7 9 10 11 13 14 13 14 16 17 17 17 17 17 17 17 17 16 16 16
1 1 -1 -0 -0 0 1 3 3 4 4 5 6 6 7 8 9 9 11 11 13 14 16 16 16 16 16 16 16 17 17 17
1 -0 -1 -1 -1 -1 0 2 3 3 3 4 4 4 5 5 6 6 7 7 9 10 13 15 16 16 16 15 16 16 17 16
0 -0 -1 -1 -1 -1 -1 0 2 3 3 3 3 3 4 4 3 3 4 4 5 7 9 13 15 16 15 15 15 16 16 16
-0 -1 -1 -2 -1 -1 -1 -0 1 2 2 2 1 2 2 2 2 2 2 2 3 3 4 6 7 10 11 12 14 15 15 15
-0 -1 -1 -2 -1 -1 -1 -1 -0 0 2 3 2 2 1 1 2 1 1 1 1 1 3 2 2 3 6 8 9 11 14 15
0 -0 -1 -2 -2 -2 -1 -1 -1 -1 -0 1 2 2 2 1 1 1 1 1 0 0 0 1 0 0 2 3 6 9 10 12
1 -0 -0 -1 -1 -1 -1 -1 -1 -1 -1 -0 1 2 1 1 1 0 0 -0 -1 -1 -0 -1 -1 -1 -1 1 3 5 6 7
-0 -1 -2 -1 -1 -2 -1 -1 -1 -2 -1 -1 0 1 1 1 1 1 0 -0 -1 -1 -1 -1 -2 -2 -2 1 1 1 1 1
-1 -2 -2 -2 -1 -1 -2 -1 -2 -2 -2 -2 -1 -1 -0 -0 -0 -0 -0 -0 -1 -1 -2 -1 -1 -3 -3 -1 -1 -1 -1 -1
-0 -2 -3 -1 -1 -1 -1 -2 -2 -2 -3 -3 -2 -1 -1 -1 -2 -1 -1 -2 -2 -2 -2 -3 -2 -3 -4 -3 -1 -2 -2 -2